| time (UTC) | temp F | wind direction | speed MPH | gust MPH | rain 1hr in | rain 24hr in | rain mn in | humidity % | barometer mb |
| 20260507044100 | 46 | 90 | 4.0 | 13.0 | 0.00 | 0.80 | 0.00 | 90 | 1012.0 |
| 20260507043901 | 46 | 45 | 5.0 | 10.0 | 0.00 | 0.80 | 0.00 | 90 | 1012.2 |
| 20260507043715 | 46 | 68 | 5.0 | 9.0 | 0.00 | 0.82 | 0.00 | 90 | 1012.1 |
| 20260507043649 | 46 | 22 | 5.0 | 9.0 | 0.00 | 0.82 | 0.00 | 90 | 1012.1 |
| 20260507043520 | 46 | 315 | 5.0 | 9.0 | 0.00 | 0.82 | 0.00 | 90 | 1012.0 |
| 20260507043323 | 46 | 0 | 6.0 | 10.0 | 0.00 | 0.82 | 0.00 | 90 | 1012.1 |
| 20260507043132 | 46 | 22 | 6.0 | 10.0 | 0.00 | 0.83 | 0.00 | 90 | 1012.0 |
| 20260507042933 | 46 | 0 | 5.0 | 9.0 | 0.00 | 0.83 | 0.00 | 90 | 1012.0 |
| 20260507042755 | 46 | 22 | 5.0 | 9.0 | 0.00 | 0.83 | 0.00 | 90 | 1011.9 |
| 20260507042600 | 46 | 0 | 4.0 | 9.0 | 0.00 | 0.85 | 0.00 | 90 | 1011.9 |
| 20260507042408 | 46 | 22 | 4.0 | 9.0 | 0.00 | 0.85 | 0.00 | 90 | 1012.0 |
| 20260507042215 | 46 | 45 | 3.0 | 7.0 | 0.00 | 0.85 | 0.00 | 90 | 1012.0 |
| 20260507042019 | 46 | 68 | 3.0 | 7.0 | 0.00 | 0.87 | 0.00 | 90 | 1012.1 |
| 20260507041926 | 46 | 90 | 3.0 | 7.0 | 0.00 | 0.87 | 0.00 | 90 | 1012.0 |
| 20260507041835 | 46 | 292 | 3.0 | 7.0 | 0.00 | 0.87 | 0.00 | 91 | 1012.1 |
| 20260507041637 | 46 | 68 | 3.0 | 6.0 | 0.00 | 0.87 | 0.00 | 90 | 1012.1 |
| 20260507041455 | 46 | 22 | 3.0 | 7.0 | 0.00 | 0.88 | 0.00 | 91 | 1012.0 |
| 20260507041315 | 46 | 45 | 3.0 | 7.0 | 0.00 | 0.88 | 0.00 | 91 | 1012.0 |
| 20260507041133 | 46 | 68 | 3.0 | 7.0 | 0.00 | 0.88 | 0.00 | 91 | 1012.0 |
| 20260507040935 | 46 | 22 | 3.0 | 6.0 | 0.00 | 0.90 | 0.00 | 91 | 1012.0 |
| 20260507040740 | 46 | 45 | 2.0 | 5.0 | 0.00 | 0.90 | 0.00 | 91 | 1012.0 |
| 20260507040600 | 46 | 22 | 2.0 | 5.0 | 0.00 | 0.90 | 0.00 | 91 | 1012.0 |
| 20260507040405 | 46 | 68 | 2.0 | 5.0 | 0.00 | 0.91 | 0.00 | 91 | 1011.9 |
| 20260507040230 | 46 | 45 | 2.0 | 5.0 | 0.00 | 0.91 | 0.00 | 90 | 1011.8 |
| 20260507040057 | 46 | 45 | 2.0 | 5.0 | 0.00 | 0.91 | 0.00 | 90 | 1011.9 |
| 20260507040045 | 46 | 45 | 2.0 | 5.0 | 0.00 | 0.91 | 0.00 | 90 | 1011.9 |
| 20260507035900 | 46 | 90 | 3.0 | 4.0 | 0.00 | 0.93 | 0.00 | 90 | 1011.9 |
| 20260507035720 | 46 | 90 | 3.0 | 5.0 | 0.00 | 0.93 | 0.00 | 90 | 1011.9 |
| 20260507035537 | 46 | 90 | 3.0 | 4.0 | 0.00 | 0.93 | 0.00 | 90 | 1011.8 |
| 20260507035350 | 46 | 90 | 4.0 | 6.0 | 0.00 | 0.94 | 0.00 | 90 | 1011.7 |
| 20260507035200 | 46 | 45 | 4.0 | 8.0 | 0.00 | 0.94 | 0.00 | 90 | 1011.6 |
| 20260507035005 | 46 | 22 | 4.0 | 8.0 | 0.00 | 0.94 | 0.00 | 90 | 1011.5 |
| 20260507034804 | 46 | 90 | 3.0 | 6.0 | 0.00 | 0.96 | 0.00 | 90 | 1011.6 |
| 20260507034628 | 46 | 45 | 3.0 | 6.0 | 0.00 | 0.96 | 0.00 | 90 | 1011.6 |
| 20260507034515 | 46 | 22 | 3.0 | 6.0 | 0.00 | 0.96 | 0.00 | 90 | 1011.6 |
| 20260507034450 | 46 | 45 | 3.0 | 5.0 | 0.00 | 0.96 | 0.00 | 90 | 1011.5 |
| 20260507034305 | 46 | 45 | 2.0 | 5.0 | 0.00 | 0.98 | 0.00 | 90 | 1011.6 |
| 20260507034128 | 46 | 45 | 2.0 | 10.0 | 0.00 | 0.98 | 0.00 | 90 | 1011.6 |
| 20260507033940 | 46 | 45 | 3.0 | 10.0 | 0.00 | 0.98 | 0.00 | 90 | 1011.5 |
| 20260507033755 | 46 | 45 | 3.0 | 10.0 | 0.00 | 0.98 | 0.00 | 90 | 1011.6 |
| 20260507033615 | 46 | 68 | 3.0 | 5.0 | 0.00 | 0.98 | 0.00 | 90 | 1011.6 |
| 20260507033425 | 46 | 45 | 3.0 | 6.0 | 0.00 | 0.98 | 0.00 | 90 | 1011.6 |
| 20260507033245 | 46 | 90 | 4.0 | 8.0 | 0.00 | 0.98 | 0.00 | 90 | 1011.6 |
| 20260507033049 | 46 | 68 | 4.0 | 8.0 | 0.00 | 0.98 | 0.00 | 90 | 1011.5 |
| 20260507032900 | 46 | 45 | 5.0 | 8.0 | 0.00 | 0.98 | 0.00 | 91 | 1011.5 |
| 20260507032854 | 46 | 45 | 4.0 | 8.0 | 0.00 | 0.99 | 0.00 | 91 | 1011.5 |
| 20260507032705 | 46 | 68 | 5.0 | 9.0 | 0.00 | 0.99 | 0.00 | 91 | 1011.5 |
| 20260507032509 | 46 | 22 | 5.0 | 9.0 | 0.00 | 0.99 | 0.00 | 90 | 1011.5 |
| 20260507032325 | 46 | 68 | 6.0 | 9.0 | 0.00 | 1.01 | 0.00 | 90 | 1011.5 |
| 20260507032129 | 46 | 22 | 6.0 | 7.0 | 0.00 | 1.01 | 0.00 | 91 | 1011.6 |
| 20260507031929 | 46 | 68 | 5.0 | 10.0 | 0.00 | 1.01 | 0.00 | 91 | 1011.6 |
| 20260507031753 | 46 | 68 | 5.0 | 12.0 | 0.00 | 1.01 | 0.00 | 91 | 1011.6 |
| 20260507031555 | 46 | 68 | 5.0 | 12.0 | 0.00 | 1.01 | 0.00 | 91 | 1011.5 |
| 20260507031415 | 46 | 68 | 4.0 | 11.0 | 0.00 | 1.01 | 0.00 | 90 | 1011.4 |
| 20260507031225 | 46 | 22 | 4.0 | 13.0 | 0.00 | 1.01 | 0.00 | 90 | 1011.5 |
| 20260507031040 | 46 | 68 | 5.0 | 13.0 | 0.00 | 1.02 | 0.00 | 91 | 1011.4 |
| 20260507031021 | 46 | 68 | 5.0 | 13.0 | 0.00 | 1.02 | 0.00 | 91 | 1011.3 |
| 20260507030900 | 46 | 112 | 5.0 | 13.0 | 0.00 | 1.02 | 0.00 | 90 | 1011.4 |
| 20260507030712 | 46 | 68 | 5.0 | 11.0 | 0.00 | 1.02 | 0.00 | 91 | 1011.4 |
| 20260507030525 | 46 | 68 | 5.0 | 11.0 | 0.00 | 1.02 | 0.00 | 91 | 1011.4 |
| 20260507030345 | 46 | 90 | 5.0 | 11.0 | 0.00 | 1.02 | 0.00 | 90 | 1011.4 |
| 20260507030148 | 46 | 22 | 4.0 | 7.0 | 0.00 | 1.02 | 0.00 | 91 | 1011.4 |
| 20260507030000 | 46 | 68 | 4.0 | 11.0 | 0.00 | 1.04 | 0.00 | 91 | 1011.5 |
| 20260507025805 | 46 | 90 | 5.0 | 11.0 | 0.00 | 1.04 | 0.00 | 91 | 1011.4 |
| 20260507025620 | 46 | 22 | 4.0 | 11.0 | 0.00 | 1.04 | 0.00 | 91 | 1011.4 |
| 20260507025508 | 46 | 45 | 4.0 | 8.0 | 0.00 | 1.04 | 0.00 | 91 | 1011.4 |
| 20260507025425 | 46 | 68 | 4.0 | 8.0 | 0.00 | 1.04 | 0.00 | 91 | 1011.4 |
| 20260507025238 | 46 | 22 | 4.0 | 6.0 | 0.00 | 1.04 | 0.00 | 91 | 1011.4 |
| 20260507025057 | 46 | 22 | 4.0 | 6.0 | 0.00 | 1.04 | 0.00 | 91 | 1011.4 |
| 20260507024858 | 46 | 22 | 4.0 | 6.0 | 0.00 | 1.04 | 0.00 | 91 | 1011.4 |
| 20260507024712 | 46 | 315 | 5.0 | 7.0 | 0.00 | 1.04 | 0.00 | 91 | 1011.4 |
| 20260507024525 | 46 | 22 | 6.0 | 10.0 | 0.00 | 1.04 | 0.00 | 91 | 1011.3 |
| 20260507024328 | 46 | 22 | 5.0 | 10.0 | 0.00 | 1.06 | 0.00 | 91 | 1011.3 |
| 20260507024142 | 46 | 68 | 5.0 | 11.0 | 0.00 | 1.06 | 0.00 | 91 | 1011.2 |
| 20260507024000 | 46 | 68 | 4.0 | 11.0 | 0.00 | 1.06 | 0.00 | 91 | 1011.2 |
| 20260507023809 | 46 | 22 | 4.0 | 11.0 | 0.00 | 1.06 | 0.00 | 91 | 1011.2 |
| 20260507023642 | 46 | 68 | 4.0 | 8.0 | 0.00 | 1.06 | 0.00 | 91 | 1011.2 |
| 20260507023608 | 46 | 68 | 3.0 | 8.0 | 0.00 | 1.06 | 0.00 | 91 | 1011.3 |
| 20260507023417 | 46 | 90 | 3.0 | 7.0 | 0.00 | 1.06 | 0.00 | 91 | 1011.2 |
| 20260507023225 | 46 | 338 | 4.0 | 10.0 | 0.00 | 1.06 | 0.00 | 91 | 1011.2 |
| 20260507023044 | 46 | 22 | 4.0 | 10.0 | 0.00 | 1.06 | 0.00 | 91 | 1011.2 |
| 20260507022900 | 45 | 68 | 4.0 | 10.0 | 0.00 | 1.06 | 0.00 | 91 | 1011.2 |
| 20260507022709 | 46 | 45 | 3.0 | 6.0 | 0.00 | 1.06 | 0.00 | 91 | 1011.3 |
| 20260507022520 | 46 | 90 | 3.0 | 6.0 | 0.00 | 1.06 | 0.00 | 91 | 1011.1 |
| 20260507022325 | 46 | 112 | 3.0 | 5.0 | 0.00 | 1.06 | 0.00 | 91 | 1011.2 |
| 20260507022140 | 46 | 45 | 3.0 | 6.0 | 0.00 | 1.06 | 0.00 | 91 | 1011.2 |
| 20260507021955 | 46 | 45 | 3.0 | 6.0 | 0.00 | 1.06 | 0.00 | 91 | 1011.2 |
| 20260507021831 | 46 | 90 | 3.0 | 9.0 | 0.00 | 1.06 | 0.00 | 91 | 1011.2 |
| 20260507021805 | 46 | 68 | 3.0 | 9.0 | 0.00 | 1.06 | 0.00 | 91 | 1011.2 |
| 20260507021623 | 46 | 22 | 3.0 | 9.0 | 0.00 | 1.06 | 0.00 | 91 | 1011.2 |
| 20260507021429 | 46 | 45 | 3.0 | 9.0 | 0.00 | 1.07 | 0.00 | 91 | 1011.2 |
| 20260507021240 | 46 | 22 | 3.0 | 6.0 | 0.00 | 1.07 | 0.00 | 91 | 1011.2 |
| 20260507021048 | 46 | 22 | 3.0 | 6.0 | 0.00 | 1.07 | 0.00 | 91 | 1011.2 |
| 20260507020900 | 46 | 292 | 4.0 | 6.0 | 0.00 | 1.07 | 0.00 | 91 | 1011.1 |
| 20260507020700 | 46 | 45 | 4.0 | 7.0 | 0.00 | 1.07 | 0.00 | 91 | 1011.2 |
| 20260507020514 | 46 | 22 | 4.0 | 10.0 | 0.00 | 1.07 | 0.00 | 91 | 1011.0 |
| 20260507020323 | 46 | 45 | 3.0 | 10.0 | 0.00 | 1.07 | 0.00 | 91 | 1011.0 |
| 20260507020203 | 46 | 90 | 3.0 | 10.0 | 0.00 | 1.07 | 0.00 | 91 | 1010.9 |
| 20260507020125 | 46 | 68 | 3.0 | 10.0 | 0.00 | 1.07 | 0.00 | 91 | 1010.9 |
| 20260507015929 | 46 | 45 | 3.0 | 9.0 | 0.00 | 1.07 | 0.00 | 91 | 1010.9 |
| 20260507015740 | 46 | 22 | 3.0 | 9.0 | 0.00 | 1.07 | 0.00 | 91 | 1011.0 |
| 20260507015540 | 46 | 68 | 3.0 | 5.0 | 0.00 | 1.07 | 0.00 | 91 | 1011.1 |
| 20260507015345 | 46 | 22 | 4.0 | 7.0 | 0.00 | 1.07 | 0.00 | 91 | 1011.0 |
| 20260507015145 | 46 | 45 | 4.0 | 7.0 | 0.00 | 1.07 | 0.00 | 91 | 1011.0 |
| 20260507014946 | 46 | 0 | 3.0 | 7.0 | 0.00 | 1.09 | 0.00 | 91 | 1010.9 |
| 20260507014749 | 46 | 22 | 3.0 | 6.0 | 0.00 | 1.09 | 0.00 | 91 | 1011.0 |
| 20260507014651 | 46 | 22 | 3.0 | 6.0 | 0.00 | 1.09 | 0.00 | 91 | 1011.0 |
| 20260507014555 | 46 | 68 | 2.0 | 6.0 | 0.00 | 1.09 | 0.00 | 91 | 1011.0 |
| 20260507014406 | 46 | 68 | 3.0 | 6.0 | 0.00 | 1.09 | 0.00 | 91 | 1011.1 |
| 20260507014210 | 46 | 45 | 3.0 | 6.0 | 0.00 | 1.09 | 0.00 | 91 | 1011.2 |
| 20260507014015 | 46 | 45 | 2.0 | 5.0 | 0.00 | 1.09 | 0.00 | 91 | 1011.1 |
| 20260507013829 | 46 | 45 | 3.0 | 6.0 | 0.00 | 1.09 | 0.00 | 90 | 1011.2 |
| 20260507013639 | 45 | 68 | 3.0 | 6.0 | 0.00 | 1.09 | 0.00 | 90 | 1011.1 |
| 20260507013504 | 45 | 22 | 3.0 | 6.0 | 0.00 | 1.09 | 0.00 | 90 | 1011.2 |
| 20260507013323 | 45 | 0 | 3.0 | 6.0 | 0.00 | 1.09 | 0.00 | 90 | 1011.1 |
| 20260507013140 | 45 | 45 | 4.0 | 6.0 | 0.00 | 1.09 | 0.00 | 90 | 1011.3 |
| 20260507012955 | 45 | 45 | 3.0 | 7.0 | 0.00 | 1.09 | 0.00 | 90 | 1011.2 |
| 20260507012915 | 45 | 22 | 3.0 | 7.0 | 0.00 | 1.09 | 0.00 | 90 | 1011.1 |
| 20260507012757 | 45 | 22 | 3.0 | 7.0 | 0.00 | 1.09 | 0.00 | 90 | 1011.2 |
| 20260507012608 | 45 | 90 | 3.0 | 7.0 | 0.00 | 1.09 | 0.00 | 90 | 1011.2 |
| 20260507012409 | 46 | 68 | 3.0 | 6.0 | 0.00 | 1.09 | 0.00 | 90 | 1011.2 |
| 20260507012225 | 46 | 68 | 3.0 | 5.0 | 0.00 | 1.09 | 0.00 | 90 | 1011.1 |
| 20260507012035 | 45 | 22 | 2.0 | 5.0 | 0.00 | 1.09 | 0.00 | 90 | 1011.1 |
| 20260507011840 | 45 | 22 | 3.0 | 5.0 | 0.00 | 1.09 | 0.00 | 90 | 1011.1 |
| 20260507011641 | 45 | 292 | 3.0 | 9.0 | 0.00 | 1.09 | 0.00 | 90 | 1011.2 |
| 20260507011500 | 45 | 22 | 3.0 | 9.0 | 0.00 | 1.09 | 0.00 | 90 | 1011.0 |
| 20260507011404 | 45 | 22 | 4.0 | 9.0 | 0.00 | 1.09 | 0.00 | 90 | 1011.1 |
| 20260507011315 | 45 | 45 | 3.0 | 9.0 | 0.00 | 1.09 | 0.00 | 90 | 1011.1 |
| 20260507011129 | 45 | 45 | 3.0 | 6.0 | 0.00 | 1.09 | 0.00 | 90 | 1011.0 |
| 20260507010943 | 45 | 45 | 4.0 | 7.0 | 0.00 | 1.09 | 0.00 | 90 | 1011.0 |
| 20260507010745 | 45 | 22 | 4.0 | 7.0 | 0.00 | 1.09 | 0.00 | 90 | 1011.0 |
| 20260507010555 | 45 | 22 | 4.0 | 7.0 | 0.00 | 1.09 | 0.00 | 90 | 1011.1 |
| 20260507010418 | 45 | 22 | 3.0 | 6.0 | 0.00 | 1.09 | 0.00 | 90 | 1011.0 |
| 20260507010234 | 45 | 68 | 3.0 | 6.0 | 0.00 | 1.09 | 0.00 | 90 | 1010.9 |
| 20260507010055 | 45 | 112 | 2.0 | 6.0 | 0.00 | 1.09 | 0.00 | 90 | 1010.9 |
| 20260507005859 | 45 | 68 | 3.0 | 6.0 | 0.00 | 1.09 | 0.00 | 90 | 1010.9 |
| 20260507005811 | 45 | 22 | 3.0 | 6.0 | 0.00 | 1.09 | 0.00 | 90 | 1010.8 |
| 20260507005700 | 45 | 338 | 3.0 | 6.0 | 0.00 | 1.09 | 0.00 | 91 | 1010.9 |
| 20260507005505 | 45 | 68 | 3.0 | 5.0 | 0.00 | 1.09 | 0.00 | 91 | 1010.8 |
| 20260507005315 | 45 | 22 | 3.0 | 6.0 | 0.00 | 1.09 | 0.00 | 91 | 1010.8 |
| 20260507004952 | 45 | 45 | 4.0 | 6.0 | 0.00 | 1.09 | 0.00 | 91 | 1010.7 |
| 20260507004753 | 45 | 22 | 3.0 | 6.0 | 0.00 | 1.09 | 0.00 | 91 | 1010.8 |
| 20260507004600 | 45 | 45 | 3.0 | 6.0 | 0.00 | 1.09 | 0.00 | 91 | 1010.8 |
| 20260507004414 | 45 | 22 | 4.0 | 6.0 | 0.00 | 1.09 | 0.00 | 91 | 1010.7 |
| 20260507004240 | 45 | 22 | 4.0 | 6.0 | 0.00 | 1.09 | 0.00 | 90 | 1010.8 |
| 20260507004049 | 45 | 22 | 4.0 | 8.0 | 0.00 | 1.09 | 0.00 | 90 | 1010.7 |
| 20260507004045 | 45 | 68 | 4.0 | 8.0 | 0.00 | 1.09 | 0.00 | 90 | 1010.7 |
| 20260507003904 | 45 | 45 | 4.0 | 8.0 | 0.00 | 1.09 | 0.00 | 90 | 1010.7 |
| 20260507003726 | 45 | 22 | 5.0 | 8.0 | 0.00 | 1.09 | 0.00 | 90 | 1010.7 |
| 20260507003530 | 45 | 22 | 5.0 | 7.0 | 0.00 | 1.09 | 0.00 | 90 | 1010.7 |
| 20260507003345 | 45 | 68 | 5.0 | 8.0 | 0.00 | 1.09 | 0.00 | 90 | 1010.6 |
| 20260507003149 | 45 | 45 | 5.0 | 10.0 | 0.00 | 1.09 | 0.00 | 91 | 1010.6 |
| 20260507003005 | 45 | 22 | 5.0 | 10.0 | 0.00 | 1.09 | 0.00 | 90 | 1010.5 |
| 20260507002818 | 45 | 0 | 4.0 | 9.0 | 0.00 | 1.09 | 0.00 | 91 | 1010.5 |
| 20260507002620 | 45 | 45 | 4.0 | 8.0 | 0.00 | 1.09 | 0.00 | 91 | 1010.5 |
| 20260507002422 | 45 | 22 | 4.0 | 8.0 | 0.00 | 1.09 | 0.00 | 91 | 1010.5 |
| 20260507002420 | 45 | 45 | 4.0 | 8.0 | 0.00 | 1.09 | 0.00 | 91 | 1010.5 |
| 20260507002238 | 45 | 68 | 4.0 | 8.0 | 0.00 | 1.09 | 0.00 | 91 | 1010.5 |
| 20260507002100 | 45 | 22 | 4.0 | 8.0 | 0.00 | 1.09 | 0.00 | 91 | 1010.5 |
| 20260507001915 | 45 | 68 | 5.0 | 11.0 | 0.00 | 1.09 | 0.00 | 90 | 1010.5 |
| 20260507001720 | 45 | 0 | 5.0 | 11.0 | 0.00 | 1.09 | 0.00 | 90 | 1010.5 |
| 20260507001525 | 45 | 68 | 5.0 | 13.0 | 0.00 | 1.09 | 0.00 | 90 | 1010.5 |
| 20260507001326 | 45 | 45 | 5.0 | 13.0 | 0.00 | 1.09 | 0.00 | 90 | 1010.5 |
| 20260507001144 | 46 | 68 | 6.0 | 13.0 | 0.00 | 1.09 | 0.00 | 90 | 1010.5 |
| 20260507001005 | 46 | 22 | 6.0 | 8.0 | 0.00 | 1.09 | 0.00 | 90 | 1010.5 |
| 20260507000805 | 46 | 22 | 7.0 | 8.0 | 0.00 | 1.09 | 0.00 | 90 | 1010.6 |
| 20260507000740 | 46 | 22 | 7.0 | 8.0 | 0.00 | 1.09 | 0.00 | 90 | 1010.5 |
| 20260507000610 | 46 | 45 | 7.0 | 8.0 | 0.00 | 1.09 | 0.00 | 91 | 1010.5 |
| 20260507000415 | 46 | 45 | 7.0 | 21.0 | 0.00 | 1.09 | 0.00 | 91 | 1010.6 |
| 20260507000227 | 46 | 22 | 8.0 | 21.0 | 0.00 | 1.09 | 0.00 | 91 | 1010.6 |
| 20260507000035 | 46 | 45 | 8.0 | 21.0 | 0.00 | 1.09 | 0.00 | 91 | 1010.6 |
| 20260506235840 | 46 | 112 | 6.0 | 17.0 | 0.00 | 1.09 | 0.00 | 91 | 1010.5 |
| 20260506235658 | 46 | 112 | 6.0 | 17.0 | 0.00 | 1.09 | 0.00 | 92 | 1010.5 |
| 20260506235500 | 46 | 45 | 6.0 | 15.0 | 0.00 | 1.09 | 0.00 | 92 | 1010.4 |
| 20260506235318 | 46 | 22 | 4.0 | 15.0 | 0.00 | 1.09 | 0.00 | 92 | 1010.4 |
| 20260506235125 | 46 | 68 | 4.0 | 10.0 | 0.00 | 1.09 | 0.00 | 92 | 1010.5 |
| 20260506235022 | 46 | 112 | 3.0 | 10.0 | 0.00 | 1.09 | 0.00 | 93 | 1010.4 |
| 20260506234938 | 46 | 338 | 3.0 | 6.0 | 0.00 | 1.09 | 0.00 | 92 | 1010.4 |
| 20260506234745 | 46 | 22 | 3.0 | 6.0 | 0.00 | 1.09 | 0.00 | 92 | 1010.5 |
| 20260506234600 | 46 | 45 | 3.0 | 7.0 | 0.00 | 1.09 | 0.00 | 92 | 1010.4 |
| 20260506234402 | 46 | 45 | 3.0 | 7.0 | 0.00 | 1.09 | 0.00 | 93 | 1010.4 |
| 20260506234215 | 46 | 22 | 3.0 | 7.0 | 0.00 | 1.09 | 0.00 | 92 | 1010.5 |
| 20260506234038 | 46 | 22 | 3.0 | 7.0 | 0.00 | 1.09 | 0.00 | 92 | 1010.5 |
| 20260506233844 | 46 | 22 | 3.0 | 5.0 | 0.00 | 1.09 | 0.00 | 92 | 1010.5 |
| 20260506233655 | 47 | 22 | 4.0 | 6.0 | 0.00 | 1.09 | 0.00 | 92 | 1010.5 |
| 20260506233508 | 47 | 22 | 4.0 | 8.0 | 0.00 | 1.09 | 0.00 | 92 | 1010.6 |
| 20260506233312 | 47 | 68 | 4.0 | 8.0 | 0.00 | 1.09 | 0.00 | 92 | 1010.5 |
| 20260506233217 | 47 | 68 | 4.0 | 9.0 | 0.00 | 1.09 | 0.00 | 92 | 1010.4 |
| 20260506233115 | 47 | 22 | 4.0 | 9.0 | 0.00 | 1.09 | 0.00 | 92 | 1010.5 |
| 20260506232935 | 47 | 45 | 3.0 | 9.0 | 0.00 | 1.09 | 0.00 | 92 | 1010.4 |
| 20260506232738 | 47 | 22 | 3.0 | 8.0 | 0.00 | 1.09 | 0.00 | 92 | 1010.4 |
| 20260506232558 | 47 | 22 | 3.0 | 8.0 | 0.00 | 1.09 | 0.00 | 92 | 1010.4 |
| 20260506232418 | 47 | 22 | 4.0 | 8.0 | 0.00 | 1.09 | 0.00 | 92 | 1010.5 |
| 20260506232225 | 47 | 68 | 4.0 | 8.0 | 0.00 | 1.09 | 0.00 | 92 | 1010.4 |
| 20260506232040 | 47 | 22 | 5.0 | 7.0 | 0.00 | 1.09 | 0.00 | 92 | 1010.5 |
| 20260506231844 | 47 | 22 | 6.0 | 11.0 | 0.00 | 1.09 | 0.00 | 92 | 1010.4 |
| 20260506231700 | 47 | 68 | 6.0 | 11.0 | 0.00 | 1.09 | 0.00 | 92 | 1010.4 |
| 20260506231530 | 47 | 68 | 6.0 | 11.0 | 0.00 | 1.09 | 0.00 | 91 | 1010.3 |
| 20260506231515 | 47 | 68 | 6.0 | 11.0 | 0.00 | 1.09 | 0.00 | 91 | 1010.3 |
| 20260506231335 | 47 | 22 | 6.0 | 11.0 | 0.00 | 1.09 | 0.00 | 92 | 1010.3 |
| 20260506231145 | 48 | 45 | 5.0 | 13.0 | 0.00 | 1.09 | 0.00 | 91 | 1010.4 |
| 20260506231005 | 48 | 112 | 4.0 | 13.0 | 0.00 | 1.09 | 0.00 | 92 | 1010.4 |
| 20260506230807 | 48 | 68 | 3.0 | 9.0 | 0.00 | 1.09 | 0.00 | 92 | 1010.4 |
| 20260506230610 | 48 | 22 | 3.0 | 9.0 | 0.00 | 1.09 | 0.00 | 92 | 1010.4 |
| 20260506230431 | 48 | 22 | 3.0 | 9.0 | 0.00 | 1.09 | 0.00 | 92 | 1010.4 |
| 20260506230238 | 48 | 45 | 3.0 | 6.0 | 0.00 | 1.09 | 0.00 | 92 | 1010.3 |
| 20260506230100 | 48 | 68 | 3.0 | 6.0 | 0.00 | 1.09 | 0.00 | 92 | 1010.2 |
| 20260506230022 | 48 | 90 | 3.0 | 6.0 | 0.00 | 1.09 | 0.00 | 92 | 1010.3 |
| 20260506225915 | 48 | 45 | 3.0 | 5.0 | 0.00 | 1.09 | 0.00 | 92 | 1010.3 |
| 20260506225735 | 48 | 45 | 3.0 | 5.0 | 0.00 | 1.09 | 0.00 | 92 | 1010.3 |
| 20260506225547 | 48 | 90 | 3.0 | 5.0 | 0.00 | 1.09 | 0.00 | 92 | 1010.2 |
| 20260506225348 | 48 | 22 | 3.0 | 6.0 | 0.00 | 1.09 | 0.00 | 92 | 1010.2 |
| 20260506225158 | 48 | 22 | 3.0 | 6.0 | 0.00 | 1.09 | 0.00 | 92 | 1010.1 |
| 20260506225003 | 48 | 22 | 4.0 | 5.0 | 0.00 | 1.09 | 0.00 | 92 | 1010.1 |
| 20260506224822 | 48 | 22 | 4.0 | 6.0 | 0.00 | 1.09 | 0.00 | 92 | 1010.1 |
| 20260506224645 | 48 | 90 | 4.0 | 7.0 | 0.00 | 1.09 | 0.00 | 92 | 1010.1 |
| 20260506224442 | 49 | 45 | 4.0 | 10.0 | 0.00 | 1.09 | 0.00 | 92 | 1010.0 |
| 20260506224248 | 49 | 68 | 5.0 | 10.0 | 0.00 | 1.09 | 0.00 | 92 | 1009.9 |
| 20260506224237 | 49 | 45 | 5.0 | 10.0 | 0.00 | 1.09 | 0.00 | 91 | 1009.9 |
| 20260506224108 | 49 | 22 | 4.0 | 10.0 | 0.00 | 1.09 | 0.00 | 92 | 1009.9 |
| 20260506223915 | 49 | 68 | 4.0 | 7.0 | 0.00 | 1.09 | 0.00 | 92 | 1010.0 |
| 20260506223735 | 49 | 0 | 3.0 | 8.0 | 0.00 | 1.09 | 0.00 | 92 | 1009.8 |
| 20260506223555 | 49 | 68 | 3.0 | 8.0 | 0.00 | 1.09 | 0.00 | 92 | 1009.9 |
| 20260506223351 | 49 | 292 | 3.0 | 8.0 | 0.00 | 1.09 | 0.00 | 92 | 1009.8 |
| 20260506223210 | 49 | 225 | 2.0 | 7.0 | 0.00 | 1.09 | 0.00 | 92 | 1009.8 |
| 20260506223015 | 50 | 225 | 3.0 | 7.0 | 0.00 | 1.09 | 0.00 | 92 | 1009.8 |
| 20260506222819 | 50 | 22 | 3.0 | 7.0 | 0.00 | 1.09 | 0.00 | 92 | 1009.8 |
| 20260506222630 | 50 | 22 | 3.0 | 5.0 | 0.00 | 1.09 | 0.00 | 92 | 1009.8 |
| 20260506222600 | 50 | 22 | 3.0 | 5.0 | 0.00 | 1.09 | 0.00 | 92 | 1009.9 |
| 20260506222435 | 50 | 22 | 3.0 | 8.0 | 0.00 | 1.09 | 0.00 | 92 | 1009.8 |
| 20260506222235 | 50 | 22 | 3.0 | 8.0 | 0.00 | 1.09 | 0.00 | 92 | 1009.9 |
| 20260506222045 | 50 | 22 | 3.0 | 8.0 | 0.00 | 1.09 | 0.00 | 92 | 1009.8 |
| 20260506221855 | 50 | 45 | 3.0 | 7.0 | 0.00 | 1.09 | 0.00 | 92 | 1009.9 |
| 20260506221715 | 50 | 22 | 2.0 | 5.0 | 0.00 | 1.09 | 0.00 | 92 | 1009.8 |
| 20260506221538 | 50 | 22 | 2.0 | 5.0 | 0.00 | 1.09 | 0.00 | 92 | 1009.8 |
| 20260506221340 | 50 | 22 | 2.0 | 5.0 | 0.00 | 1.09 | 0.00 | 92 | 1009.8 |
| 20260506221145 | 50 | 22 | 2.0 | 5.0 | 0.00 | 1.09 | 0.00 | 92 | 1009.7 |
| 20260506221005 | 50 | 45 | 3.0 | 5.0 | 0.00 | 1.09 | 0.00 | 92 | 1009.7 |
| 20260506220813 | 50 | 112 | 3.0 | 5.0 | 0.00 | 1.09 | 0.00 | 92 | 1009.7 |
| 20260506220725 | 50 | 112 | 4.0 | 5.0 | 0.00 | 1.09 | 0.00 | 92 | 1009.8 |
| 20260506220628 | 50 | 0 | 4.0 | 6.0 | 0.00 | 1.09 | 0.00 | 92 | 1009.8 |
| 20260506220448 | 50 | 292 | 4.0 | 8.0 | 0.00 | 1.09 | 0.00 | 92 | 1009.7 |
| 20260506220258 | 50 | 68 | 4.0 | 8.0 | 0.00 | 1.09 | 0.00 | 92 | 1009.8 |
| 20260506220120 | 50 | 45 | 4.0 | 9.0 | 0.00 | 1.09 | 0.00 | 92 | 1009.7 |
| 20260506215925 | 50 | 22 | 4.0 | 9.0 | 0.00 | 1.09 | 1.09 | 92 | 1009.7 |
| 20260506215734 | 50 | 22 | 4.0 | 9.0 | 0.00 | 1.09 | 1.09 | 92 | 1009.7 |
| 20260506215545 | 50 | 45 | 3.0 | 6.0 | 0.00 | 1.09 | 1.09 | 92 | 1009.7 |
| 20260506215345 | 50 | 22 | 3.0 | 7.0 | 0.00 | 1.09 | 1.09 | 92 | 1009.8 |
| 20260506215200 | 50 | 22 | 3.0 | 7.0 | 0.00 | 1.09 | 1.09 | 92 | 1009.8 |
| 20260506215018 | 50 | 22 | 3.0 | 7.0 | 0.00 | 1.09 | 1.09 | 92 | 1009.9 |
| 20260506214836 | 50 | 22 | 3.0 | 7.0 | 0.00 | 1.09 | 1.09 | 92 | 1009.8 |
| 20260506214658 | 50 | 45 | 2.0 | 4.0 | 0.00 | 1.09 | 1.09 | 92 | 1009.9 |
| 20260506214507 | 50 | 22 | 2.0 | 4.0 | 0.00 | 1.09 | 1.09 | 92 | 1009.8 |
| 20260506214328 | 50 | 22 | 2.0 | 5.0 | 0.00 | 1.09 | 1.09 | 92 | 1009.8 |
| 20260506214134 | 50 | 45 | 2.0 | 6.0 | 0.00 | 1.09 | 1.09 | 92 | 1009.8 |
| 20260506213935 | 50 | 45 | 2.0 | 6.0 | 0.00 | 1.09 | 1.09 | 92 | 1009.8 |
| 20260506213758 | 50 | 22 | 2.0 | 6.0 | 0.00 | 1.09 | 1.09 | 92 | 1009.7 |
| 20260506213617 | 50 | 22 | 2.0 | 6.0 | 0.00 | 1.09 | 1.09 | 92 | 1009.7 |
| 20260506213435 | 50 | 22 | 3.0 | 6.0 | 0.00 | 1.09 | 1.09 | 92 | 1009.6 |
| 20260506213255 | 50 | 45 | 3.0 | 6.0 | 0.00 | 1.09 | 1.09 | 92 | 1009.6 |
| 20260506213108 | 50 | 22 | 3.0 | 6.0 | 0.00 | 1.09 | 1.09 | 92 | 1009.6 |
| 20260506212915 | 50 | 22 | 4.0 | 6.0 | 0.00 | 1.09 | 1.09 | 92 | 1009.6 |
| 20260506212715 | 50 | 68 | 3.0 | 8.0 | 0.00 | 1.09 | 1.09 | 92 | 1009.5 |
| 20260506212520 | 51 | 68 | 3.0 | 8.0 | 0.00 | 1.09 | 1.09 | 92 | 1009.6 |
| 20260506212345 | 51 | 22 | 3.0 | 8.0 | 0.00 | 1.09 | 1.09 | 92 | 1009.5 |
| 20260506212205 | 51 | 45 | 2.0 | 5.0 | 0.00 | 1.09 | 1.09 | 92 | 1009.6 |
| 20260506212023 | 51 | 45 | 2.0 | 5.0 | 0.00 | 1.09 | 1.09 | 92 | 1009.5 |
| 20260506211838 | 51 | 22 | 2.0 | 5.0 | 0.00 | 1.09 | 1.09 | 92 | 1009.6 |
| 20260506211643 | 51 | 22 | 2.0 | 5.0 | 0.00 | 1.09 | 1.09 | 92 | 1009.6 |
| 20260506211444 | 51 | 68 | 2.0 | 5.0 | 0.00 | 1.09 | 1.09 | 92 | 1009.5 |
| 20260506211432 | 51 | 68 | 2.0 | 5.0 | 0.00 | 1.09 | 1.09 | 92 | 1009.6 |
| 20260506211245 | 51 | 68 | 2.0 | 6.0 | 0.00 | 1.09 | 1.09 | 92 | 1009.5 |
| 20260506211045 | 51 | 0 | 2.0 | 7.0 | 0.00 | 1.09 | 1.09 | 92 | 1009.4 |
| 20260506210855 | 51 | 22 | 2.0 | 7.0 | 0.00 | 1.09 | 1.09 | 92 | 1009.5 |
| 20260506210717 | 51 | 22 | 3.0 | 7.0 | 0.00 | 1.09 | 1.09 | 92 | 1009.5 |
| 20260506210530 | 51 | 0 | 2.0 | 4.0 | 0.00 | 1.09 | 1.09 | 91 | 1009.6 |
| 20260506210330 | 51 | 45 | 3.0 | 6.0 | 0.00 | 1.09 | 1.09 | 91 | 1009.5 |
| 20260506210137 | 51 | 45 | 4.0 | 8.0 | 0.00 | 1.09 | 1.09 | 91 | 1009.4 |
| 20260506205949 | 51 | 90 | 4.0 | 8.0 | 0.00 | 1.09 | 1.09 | 91 | 1009.4 |
| 20260506205750 | 51 | 338 | 4.0 | 7.0 | 0.00 | 1.09 | 1.09 | 91 | 1009.5 |
| 20260506205555 | 51 | 45 | 4.0 | 7.0 | 0.00 | 1.09 | 1.09 | 91 | 1009.4 |
| 20260506205533 | 51 | 68 | 4.0 | 7.0 | 0.00 | 1.09 | 1.09 | 91 | 1009.4 |
| 20260506205410 | 51 | 68 | 4.0 | 7.0 | 0.00 | 1.09 | 1.09 | 91 | 1009.5 |
| 20260506205210 | 51 | 338 | 4.0 | 6.0 | 0.00 | 1.09 | 1.09 | 91 | 1009.5 |
| 20260506205021 | 51 | 45 | 3.0 | 7.0 | 0.00 | 1.09 | 1.09 | 92 | 1009.4 |
| 20260506204835 | 51 | 68 | 4.0 | 7.0 | 0.00 | 1.09 | 1.09 | 91 | 1009.3 |
| 20260506204650 | 51 | 68 | 4.0 | 7.0 | 0.00 | 1.09 | 1.09 | 92 | 1009.3 |
| 20260506204450 | 51 | 22 | 3.0 | 6.0 | 0.00 | 1.09 | 1.09 | 92 | 1009.3 |
| 20260506204255 | 51 | 68 | 3.0 | 7.0 | 0.00 | 1.09 | 1.09 | 92 | 1009.2 |
| 20260506204115 | 51 | 22 | 4.0 | 7.0 | 0.00 | 1.09 | 1.09 | 92 | 1009.2 |
| 20260506203935 | 51 | 45 | 4.0 | 7.0 | 0.00 | 1.09 | 1.09 | 93 | 1009.2 |
| 20260506203823 | 51 | 22 | 4.0 | 9.0 | 0.00 | 1.09 | 1.09 | 93 | 1009.2 |
| 20260506203745 | 51 | 68 | 4.0 | 9.0 | 0.00 | 1.09 | 1.09 | 93 | 1009.2 |
| 20260506203603 | 51 | 90 | 4.0 | 9.0 | 0.00 | 1.09 | 1.09 | 93 | 1009.2 |
| 20260506203428 | 51 | 90 | 5.0 | 9.0 | 0.00 | 1.09 | 1.09 | 93 | 1009.2 |
| 20260506203231 | 51 | 68 | 4.0 | 7.0 | 0.00 | 1.09 | 1.09 | 94 | 1009.2 |
| 20260506203050 | 51 | 68 | 4.0 | 7.0 | 0.00 | 1.09 | 1.09 | 94 | 1009.3 |
| 20260506202848 | 51 | 45 | 4.0 | 7.0 | 0.00 | 1.09 | 1.09 | 94 | 1009.3 |
| 20260506202710 | 51 | 22 | 4.0 | 7.0 | 0.00 | 1.09 | 1.09 | 94 | 1009.3 |
| 20260506202512 | 51 | 22 | 3.0 | 7.0 | 0.00 | 1.09 | 1.09 | 94 | 1009.3 |
| 20260506202335 | 51 | 22 | 3.0 | 5.0 | 0.00 | 1.09 | 1.09 | 94 | 1009.2 |
| 20260506202242 | 51 | 22 | 2.0 | 6.0 | 0.00 | 1.09 | 1.09 | 94 | 1009.4 |
| 20260506202135 | 51 | 22 | 3.0 | 6.0 | 0.00 | 1.09 | 1.09 | 94 | 1009.3 |
| 20260506201950 | 51 | 315 | 2.0 | 6.0 | 0.00 | 1.09 | 1.09 | 94 | 1009.3 |
| 20260506201756 | 51 | 45 | 2.0 | 6.0 | 0.00 | 1.09 | 1.09 | 94 | 1009.3 |
| 20260506201612 | 51 | 45 | 2.0 | 5.0 | 0.00 | 1.09 | 1.09 | 94 | 1009.4 |
| 20260506201416 | 51 | 22 | 2.0 | 4.0 | 0.00 | 1.09 | 1.09 | 94 | 1009.4 |
| 20260506201225 | 51 | 0 | 2.0 | 7.0 | 0.00 | 1.09 | 1.09 | 94 | 1009.4 |
| 20260506201045 | 51 | 0 | 2.0 | 7.0 | 0.00 | 1.09 | 1.09 | 94 | 1009.3 |
| 20260506200857 | 51 | 0 | 2.0 | 7.0 | 0.00 | 1.09 | 1.09 | 94 | 1009.3 |
| 20260506200710 | 51 | 22 | 1.0 | 5.0 | 0.00 | 1.09 | 1.09 | 94 | 1009.3 |
| 20260506200513 | 51 | 22 | 2.0 | 5.0 | 0.00 | 1.09 | 1.09 | 94 | 1009.3 |
| 20260506200338 | 51 | 22 | 1.0 | 5.0 | 0.00 | 1.09 | 1.09 | 94 | 1009.3 |
| 20260506200145 | 51 | 22 | 2.0 | 6.0 | 0.00 | 1.09 | 1.09 | 94 | 1009.3 |
| 20260506200005 | 51 | 22 | 2.0 | 6.0 | 0.00 | 1.09 | 1.09 | 94 | 1009.3 |
| 20260506195830 | 51 | 22 | 2.0 | 6.0 | 0.00 | 1.09 | 1.09 | 94 | 1009.2 |
| 20260506195638 | 51 | 22 | 3.0 | 9.0 | 0.00 | 1.09 | 1.09 | 94 | 1009.3 |
| 20260506195438 | 51 | 22 | 3.0 | 9.0 | 0.00 | 1.09 | 1.09 | 94 | 1009.2 |
| 20260506195248 | 51 | 22 | 3.0 | 9.0 | 0.00 | 1.09 | 1.09 | 94 | 1009.2 |
| 20260506195110 | 51 | 22 | 3.0 | 9.0 | 0.00 | 1.09 | 1.09 | 94 | 1009.2 |
| 20260506194915 | 51 | 22 | 2.0 | 4.0 | 0.00 | 1.09 | 1.09 | 94 | 1009.2 |
| 20260506194725 | 51 | 22 | 2.0 | 4.0 | 0.00 | 1.09 | 1.09 | 94 | 1009.2 |
| 20260506194622 | 51 | 22 | 2.0 | 5.0 | 0.00 | 1.09 | 1.09 | 94 | 1009.2 |
| 20260506194548 | 51 | 22 | 2.0 | 5.0 | 0.00 | 1.09 | 1.09 | 94 | 1009.2 |
| 20260506194355 | 51 | 22 | 2.0 | 5.0 | 0.00 | 1.09 | 1.09 | 94 | 1009.1 |
| 20260506194205 | 51 | 22 | 2.0 | 4.0 | 0.00 | 1.09 | 1.09 | 93 | 1009.1 |
| 20260506194012 | 51 | 22 | 2.0 | 4.0 | 0.00 | 1.09 | 1.09 | 93 | 1009.1 |
| 20260506193818 | 51 | 22 | 2.0 | 4.0 | 0.00 | 1.09 | 1.09 | 93 | 1009.0 |
| 20260506193635 | 51 | 22 | 2.0 | 5.0 | 0.00 | 1.09 | 1.09 | 93 | 1009.1 |
| 20260506193450 | 51 | 22 | 1.0 | 5.0 | 0.00 | 1.09 | 1.09 | 93 | 1009.2 |
| 20260506193255 | 51 | 22 | 1.0 | 5.0 | 0.00 | 1.09 | 1.09 | 93 | 1009.1 |
| 20260506193115 | 51 | 45 | 1.0 | 2.0 | 0.00 | 1.09 | 1.09 | 93 | 1009.2 |
| 20260506192938 | 51 | 45 | 1.0 | 2.0 | 0.00 | 1.09 | 1.09 | 93 | 1009.1 |
| 20260506192924 | 51 | 45 | 2.0 | 2.0 | 0.00 | 1.09 | 1.09 | 93 | 1009.2 |
| 20260506192752 | 51 | 45 | 2.0 | 2.0 | 0.00 | 1.09 | 1.09 | 92 | 1009.2 |
| 20260506192558 | 51 | 45 | 2.0 | 8.0 | 0.00 | 1.09 | 1.09 | 93 | 1009.1 |
| 20260506192416 | 51 | 45 | 2.0 | 8.0 | 0.00 | 1.09 | 1.09 | 92 | 1009.1 |
| 20260506192235 | 51 | 45 | 2.0 | 8.0 | 0.00 | 1.09 | 1.09 | 92 | 1009.1 |
| 20260506192048 | 51 | 22 | 2.0 | 6.0 | 0.00 | 1.09 | 1.09 | 93 | 1009.1 |
| 20260506191855 | 51 | 22 | 2.0 | 6.0 | 0.00 | 1.09 | 1.09 | 92 | 1009.1 |
| 20260506191718 | 51 | 68 | 3.0 | 6.0 | 0.00 | 1.09 | 1.09 | 93 | 1009.1 |
| 20260506191525 | 51 | 22 | 2.0 | 6.0 | 0.00 | 1.09 | 1.09 | 93 | 1009.1 |
| 20260506191330 | 51 | 22 | 2.0 | 6.0 | 0.00 | 1.09 | 1.09 | 92 | 1009.0 |
| 20260506191130 | 51 | 45 | 2.0 | 6.0 | 0.00 | 1.09 | 1.09 | 92 | 1009.1 |
| 20260506191041 | 51 | 68 | 2.0 | 6.0 | 0.00 | 1.09 | 1.09 | 93 | 1009.0 |
| 20260506190935 | 51 | 45 | 2.0 | 4.0 | 0.00 | 1.09 | 1.09 | 93 | 1009.0 |
| 20260506190755 | 51 | 45 | 2.0 | 4.0 | 0.00 | 1.09 | 1.09 | 93 | 1009.0 |
| 20260506190615 | 51 | 45 | 2.0 | 5.0 | 0.00 | 1.09 | 1.09 | 93 | 1009.0 |
| 20260506190435 | 51 | 45 | 2.0 | 5.0 | 0.00 | 1.09 | 1.09 | 93 | 1009.0 |
| 20260506190235 | 51 | 45 | 2.0 | 5.0 | 0.00 | 1.09 | 1.09 | 93 | 1009.0 |
| 20260506190048 | 51 | 22 | 1.0 | 5.0 | 0.00 | 1.09 | 1.09 | 92 | 1009.0 |
| 20260506185858 | 51 | 22 | 1.0 | 5.0 | 0.00 | 1.09 | 1.09 | 92 | 1008.9 |
| 20260506185719 | 51 | 22 | 1.0 | 5.0 | 0.00 | 1.09 | 1.09 | 92 | 1008.9 |
| 20260506185541 | 51 | 22 | 1.0 | 5.0 | 0.00 | 1.09 | 1.09 | 92 | 1008.9 |
| 20260506185501 | 51 | 90 | 1.0 | 2.0 | 0.00 | 1.09 | 1.09 | 92 | 1008.9 |
| 20260506185405 | 51 | 90 | 1.0 | 2.0 | 0.00 | 1.09 | 1.09 | 92 | 1008.8 |
| 20260506185218 | 51 | 112 | 1.0 | 2.0 | 0.00 | 1.09 | 1.09 | 92 | 1008.8 |
| 20260506185037 | 51 | 22 | 2.0 | 8.0 | 0.00 | 1.09 | 1.09 | 92 | 1008.8 |
| 20260506184845 | 51 | 22 | 2.0 | 8.0 | 0.00 | 1.09 | 1.09 | 92 | 1008.7 |
| 20260506184710 | 51 | 22 | 2.0 | 4.0 | 0.00 | 1.09 | 1.09 | 92 | 1008.6 |
| 20260506184513 | 51 | 22 | 2.0 | 6.0 | 0.00 | 1.09 | 1.09 | 92 | 1008.6 |
| 20260506184325 | 51 | 68 | 2.0 | 6.0 | 0.00 | 1.09 | 1.09 | 93 | 1008.6 |
| 20260506184143 | 51 | 68 | 2.0 | 6.0 | 0.00 | 1.09 | 1.09 | 92 | 1008.5 |
| 20260506183955 | 51 | 22 | 2.0 | 4.0 | 0.00 | 1.09 | 1.09 | 92 | 1008.5 |
| 20260506183758 | 52 | 0 | 3.0 | 5.0 | 0.00 | 1.09 | 1.09 | 93 | 1008.5 |
| 20260506183637 | 52 | 45 | 3.0 | 5.0 | 0.00 | 1.09 | 1.09 | 92 | 1008.4 |
| 20260506183610 | 52 | 45 | 3.0 | 5.0 | 0.00 | 1.09 | 1.09 | 92 | 1008.3 |
| 20260506183425 | 52 | 68 | 3.0 | 6.0 | 0.00 | 1.09 | 1.09 | 92 | 1008.3 |
| 20260506183238 | 52 | 22 | 3.0 | 6.0 | 0.00 | 1.09 | 1.09 | 92 | 1008.3 |
| 20260506183055 | 52 | 45 | 3.0 | 6.0 | 0.00 | 1.09 | 1.09 | 92 | 1008.3 |
| 20260506182915 | 52 | 68 | 2.0 | 5.0 | 0.00 | 1.09 | 1.09 | 92 | 1008.4 |
| 20260506182738 | 52 | 22 | 2.0 | 4.0 | 0.00 | 1.09 | 1.09 | 92 | 1008.4 |
| 20260506182558 | 52 | 22 | 2.0 | 5.0 | 0.00 | 1.09 | 1.09 | 92 | 1008.4 |
| 20260506182405 | 52 | 45 | 2.0 | 6.0 | 0.00 | 1.09 | 1.09 | 91 | 1008.4 |
| 20260506182205 | 52 | 68 | 2.0 | 6.0 | 0.00 | 1.09 | 1.09 | 91 | 1008.4 |
| 20260506182010 | 52 | 45 | 2.0 | 6.0 | 0.00 | 1.09 | 1.09 | 91 | 1008.4 |
| 20260506181911 | 52 | 45 | 2.0 | 7.0 | 0.00 | 1.09 | 1.09 | 91 | 1008.3 |
| 20260506181815 | 53 | 68 | 2.0 | 7.0 | 0.00 | 1.09 | 1.09 | 90 | 1008.4 |
| 20260506181634 | 53 | 68 | 2.0 | 7.0 | 0.00 | 1.09 | 1.09 | 90 | 1008.5 |
| 20260506181448 | 53 | 0 | 2.0 | 5.0 | 0.00 | 1.09 | 1.09 | 90 | 1008.5 |
| 20260506181305 | 53 | 45 | 2.0 | 5.0 | 0.00 | 1.09 | 1.09 | 90 | 1008.5 |
| 20260506181125 | 53 | 45 | 2.0 | 5.0 | 0.00 | 1.09 | 1.09 | 91 | 1008.5 |
| 20260506180938 | 53 | 45 | 2.0 | 6.0 | 0.00 | 1.09 | 1.09 | 91 | 1008.5 |
| 20260506180755 | 53 | 45 | 2.0 | 6.0 | 0.00 | 1.09 | 1.09 | 91 | 1008.5 |
| 20260506180607 | 53 | 45 | 2.0 | 7.0 | 0.00 | 1.09 | 1.09 | 91 | 1008.5 |
| 20260506180415 | 53 | 68 | 3.0 | 7.0 | 0.00 | 1.09 | 1.09 | 91 | 1008.4 |
| 20260506180232 | 53 | 68 | 3.0 | 8.0 | 0.00 | 1.09 | 1.09 | 91 | 1008.3 |
| 20260506180035 | 53 | 45 | 3.0 | 8.0 | 0.00 | 1.09 | 1.09 | 92 | 1008.3 |
| 20260506175855 | 53 | 68 | 3.0 | 8.0 | 0.00 | 1.09 | 1.09 | 92 | 1008.4 |
| 20260506175712 | 53 | 338 | 3.0 | 7.0 | 0.00 | 1.09 | 1.09 | 92 | 1008.4 |
| 20260506175535 | 53 | 0 | 3.0 | 7.0 | 0.00 | 1.09 | 1.09 | 92 | 1008.4 |
| 20260506175345 | 53 | 0 | 4.0 | 7.0 | 0.00 | 1.09 | 1.09 | 91 | 1008.4 |
| 20260506175148 | 53 | 45 | 4.0 | 8.0 | 0.00 | 1.09 | 1.09 | 91 | 1008.3 |
| 20260506174958 | 53 | 112 | 4.0 | 8.0 | 0.00 | 1.09 | 1.09 | 92 | 1008.3 |
| 20260506174807 | 53 | 22 | 4.0 | 8.0 | 0.00 | 1.09 | 1.09 | 91 | 1008.2 |
| 20260506174625 | 53 | 22 | 4.0 | 6.0 | 0.00 | 1.09 | 1.09 | 91 | 1008.1 |
| 20260506174430 | 53 | 45 | 3.0 | 6.0 | 0.00 | 1.09 | 1.09 | 91 | 1008.2 |
| 20260506174250 | 53 | 22 | 3.0 | 5.0 | 0.00 | 1.09 | 1.09 | 91 | 1008.1 |
| 20260506174100 | 53 | 68 | 3.0 | 5.0 | 0.00 | 1.09 | 1.09 | 91 | 1008.1 |
| 20260506173924 | 54 | 22 | 2.0 | 5.0 | 0.00 | 1.09 | 1.09 | 91 | 1008.1 |
| 20260506173728 | 54 | 45 | 3.0 | 6.0 | 0.00 | 1.09 | 1.09 | 91 | 1008.1 |
| 20260506173550 | 54 | 45 | 3.0 | 6.0 | 0.00 | 1.09 | 1.09 | 91 | 1008.1 |
| 20260506173405 | 54 | 68 | 3.0 | 6.0 | 0.00 | 1.09 | 1.09 | 91 | 1008.1 |
| 20260506173218 | 54 | 45 | 3.0 | 6.0 | 0.00 | 1.09 | 1.09 | 91 | 1008.1 |
| 20260506173036 | 54 | 22 | 3.0 | 6.0 | 0.00 | 1.09 | 1.09 | 91 | 1008.0 |
| 20260506172855 | 54 | 68 | 4.0 | 6.0 | 0.00 | 1.09 | 1.09 | 91 | 1008.0 |
| 20260506172713 | 54 | 45 | 3.0 | 7.0 | 0.00 | 1.09 | 1.09 | 91 | 1007.9 |
| 20260506172534 | 54 | 45 | 3.0 | 7.0 | 0.00 | 1.09 | 1.09 | 91 | 1008.0 |
| 20260506172335 | 54 | 22 | 3.0 | 9.0 | 0.00 | 1.09 | 1.09 | 91 | 1008.0 |
| 20260506172145 | 54 | 68 | 3.0 | 9.0 | 0.00 | 1.09 | 1.09 | 92 | 1008.0 |
| 20260506172010 | 54 | 22 | 3.0 | 9.0 | 0.00 | 1.09 | 1.09 | 91 | 1008.0 |
| 20260506171820 | 54 | 45 | 3.0 | 5.0 | 0.00 | 1.09 | 1.09 | 91 | 1008.0 |
| 20260506171643 | 54 | 45 | 3.0 | 6.0 | 0.00 | 1.09 | 1.09 | 92 | 1008.0 |
| 20260506171505 | 54 | 0 | 3.0 | 6.0 | 0.00 | 1.09 | 1.09 | 92 | 1008.0 |
| 20260506171342 | 54 | 112 | 3.0 | 6.0 | 0.00 | 1.09 | 1.09 | 92 | 1008.0 |
| 20260506171324 | 54 | 22 | 3.0 | 6.0 | 0.00 | 1.09 | 1.09 | 92 | 1007.9 |
| 20260506171127 | 54 | 45 | 3.0 | 6.0 | 0.00 | 1.09 | 1.09 | 92 | 1008.0 |
| 20260506170938 | 54 | 68 | 2.0 | 5.0 | 0.00 | 1.09 | 1.09 | 91 | 1008.0 |
| 20260506170738 | 55 | 45 | 2.0 | 5.0 | 0.00 | 1.09 | 1.09 | 91 | 1008.0 |
| 20260506170555 | 55 | 22 | 2.0 | 5.0 | 0.00 | 1.09 | 1.09 | 91 | 1008.0 |
| 20260506170415 | 55 | 45 | 2.0 | 5.0 | 0.00 | 1.09 | 1.09 | 91 | 1007.9 |
| 20260506170218 | 55 | 45 | 2.0 | 5.0 | 0.00 | 1.09 | 1.09 | 91 | 1008.0 |
| 20260506170035 | 55 | 45 | 2.0 | 5.0 | 0.00 | 1.09 | 1.09 | 91 | 1008.0 |
| 20260506165850 | 55 | 22 | 2.0 | 4.0 | 0.00 | 1.09 | 1.09 | 91 | 1008.0 |
| 20260506165822 | 55 | 22 | 2.0 | 6.0 | 0.00 | 1.09 | 1.09 | 91 | 1007.9 |
| 20260506165710 | 55 | 90 | 2.0 | 6.0 | 0.00 | 1.09 | 1.09 | 91 | 1008.0 |
| 20260506165523 | 55 | 68 | 2.0 | 6.0 | 0.00 | 1.09 | 1.09 | 92 | 1007.9 |
| 20260506165325 | 55 | 68 | 2.0 | 6.0 | 0.00 | 1.09 | 1.09 | 91 | 1007.9 |
| 20260506165138 | 55 | 22 | 2.0 | 5.0 | 0.00 | 1.09 | 1.09 | 91 | 1007.9 |
| 20260506164938 | 55 | 45 | 2.0 | 8.0 | 0.00 | 1.09 | 1.09 | 91 | 1007.9 |
| 20260506164753 | 55 | 22 | 3.0 | 8.0 | 0.00 | 1.09 | 1.09 | 91 | 1007.8 |
| 20260506164605 | 56 | 45 | 3.0 | 6.0 | 0.00 | 1.09 | 1.09 | 90 | 1007.8 |
| 20260506164415 | 56 | 45 | 2.0 | 6.0 | 0.00 | 1.09 | 1.09 | 90 | 1007.9 |
| 20260506164213 | 56 | 45 | 2.0 | 6.0 | 0.00 | 1.09 | 1.09 | 90 | 1007.8 |
| 20260506164038 | 56 | 45 | 2.0 | 8.0 | 0.00 | 1.09 | 1.09 | 89 | 1007.9 |
| 20260506163958 | 56 | 68 | 2.0 | 8.0 | 0.00 | 1.09 | 1.09 | 89 | 1007.8 |
| 20260506163838 | 56 | 22 | 2.0 | 8.0 | 0.00 | 1.09 | 1.09 | 89 | 1007.8 |
| 20260506163645 | 56 | 45 | 2.0 | 8.0 | 0.00 | 1.09 | 1.09 | 88 | 1007.8 |
| 20260506163505 | 56 | 45 | 2.0 | 4.0 | 0.00 | 1.09 | 1.09 | 89 | 1007.7 |
| 20260506163325 | 56 | 22 | 2.0 | 5.0 | 0.00 | 1.09 | 1.09 | 89 | 1007.7 |
| 20260506163125 | 56 | 22 | 2.0 | 5.0 | 0.00 | 1.09 | 1.09 | 89 | 1007.8 |
| 20260506162945 | 56 | 22 | 2.0 | 5.0 | 0.00 | 1.09 | 1.09 | 88 | 1007.7 |
| 20260506162745 | 56 | 45 | 2.0 | 5.0 | 0.00 | 1.09 | 1.09 | 88 | 1007.8 |
| 20260506162605 | 56 | 22 | 2.0 | 5.0 | 0.00 | 1.09 | 1.09 | 89 | 1007.7 |
| 20260506162407 | 56 | 45 | 2.0 | 5.0 | 0.00 | 1.09 | 1.09 | 89 | 1007.7 |
| 20260506162210 | 56 | 22 | 2.0 | 5.0 | 0.00 | 1.09 | 1.09 | 89 | 1007.8 |
| 20260506162023 | 56 | 22 | 2.0 | 5.0 | 0.00 | 1.09 | 1.09 | 89 | 1007.7 |
| 20260506161830 | 56 | 22 | 2.0 | 5.0 | 0.00 | 1.09 | 1.09 | 88 | 1007.7 |
| 20260506161630 | 56 | 22 | 2.0 | 5.0 | 0.00 | 1.09 | 1.09 | 87 | 1007.7 |
| 20260506161435 | 56 | 22 | 2.0 | 7.0 | 0.00 | 1.09 | 1.09 | 87 | 1007.8 |
| 20260506161105 | 56 | 68 | 2.0 | 7.0 | 0.00 | 1.09 | 1.09 | 87 | 1007.9 |
| 20260506160903 | 56 | 68 | 2.0 | 5.0 | 0.00 | 1.09 | 1.09 | 87 | 1008.0 |
| 20260506160704 | 56 | 22 | 3.0 | 6.0 | 0.00 | 1.09 | 1.09 | 87 | 1007.9 |
| 20260506160611 | 56 | 22 | 3.0 | 6.0 | 0.00 | 1.09 | 1.09 | 87 | 1008.0 |
| 20260506160518 | 56 | 22 | 3.0 | 6.0 | 0.00 | 1.09 | 1.09 | 86 | 1007.9 |
| 20260506160326 | 56 | 90 | 3.0 | 7.0 | 0.00 | 1.09 | 1.09 | 86 | 1007.9 |
| 20260506160140 | 57 | 68 | 3.0 | 7.0 | 0.00 | 1.09 | 1.09 | 87 | 1007.9 |
| 20260506155955 | 57 | 22 | 3.0 | 8.0 | 0.00 | 1.09 | 1.09 | 87 | 1008.0 |
| 20260506155800 | 56 | 0 | 3.0 | 8.0 | 0.00 | 1.09 | 1.09 | 87 | 1008.0 |
| 20260506155612 | 56 | 45 | 2.0 | 7.0 | 0.00 | 1.09 | 1.09 | 87 | 1008.0 |
| 20260506155427 | 56 | 22 | 2.0 | 6.0 | 0.00 | 1.09 | 1.09 | 87 | 1008.0 |
| 20260506155245 | 56 | 45 | 3.0 | 6.0 | 0.00 | 1.09 | 1.09 | 88 | 1008.0 |
| 20260506155050 | 56 | 45 | 3.0 | 6.0 | 0.00 | 1.09 | 1.09 | 88 | 1008.0 |
| 20260506154901 | 56 | 338 | 3.0 | 5.0 | 0.00 | 1.09 | 1.09 | 88 | 1008.1 |
| 20260506154744 | 56 | 22 | 2.0 | 5.0 | 0.00 | 1.09 | 1.09 | 88 | 1008.0 |
| 20260506154713 | 56 | 22 | 2.0 | 5.0 | 0.00 | 1.09 | 1.09 | 89 | 1008.1 |
| 20260506154535 | 56 | 22 | 3.0 | 7.0 | 0.00 | 1.09 | 1.09 | 89 | 1008.1 |
| 20260506154335 | 56 | 22 | 3.0 | 7.0 | 0.00 | 1.09 | 1.09 | 89 | 1008.0 |
| 20260506154145 | 57 | 68 | 3.0 | 7.0 | 0.00 | 1.09 | 1.09 | 89 | 1008.0 |
| 20260506154008 | 57 | 45 | 2.0 | 6.0 | 0.00 | 1.09 | 1.09 | 90 | 1008.0 |
| 20260506153830 | 57 | 68 | 2.0 | 6.0 | 0.00 | 1.09 | 1.09 | 89 | 1008.0 |
| 20260506153650 | 57 | 22 | 2.0 | 7.0 | 0.00 | 1.09 | 1.09 | 88 | 1008.0 |
| 20260506153458 | 57 | 45 | 2.0 | 7.0 | 0.00 | 1.09 | 1.09 | 88 | 1007.9 |
| 20260506153310 | 57 | 0 | 1.0 | 4.0 | 0.00 | 1.09 | 1.09 | 88 | 1008.1 |
| 20260506153125 | 57 | 270 | 1.0 | 2.0 | 0.00 | 1.09 | 1.09 | 88 | 1008.1 |
| 20260506152929 | 57 | 68 | 2.0 | 2.0 | 0.00 | 1.09 | 1.09 | 87 | 1008.0 |
| 20260506152900 | 56 | 68 | 2.0 | 2.0 | 0.00 | 1.09 | 1.09 | 88 | 1008.0 |
| 20260506152737 | 56 | 90 | 2.0 | 5.0 | 0.00 | 1.09 | 1.09 | 88 | 1008.0 |
| 20260506152541 | 56 | 90 | 2.0 | 5.0 | 0.00 | 1.09 | 1.09 | 89 | 1008.0 |
| 20260506152343 | 56 | 90 | 3.0 | 6.0 | 0.00 | 1.09 | 1.09 | 89 | 1007.9 |
| 20260506152201 | 56 | 68 | 3.0 | 6.0 | 0.00 | 1.09 | 1.09 | 89 | 1008.0 |
| 20260506152024 | 56 | 90 | 2.0 | 6.0 | 0.00 | 1.09 | 1.09 | 89 | 1007.9 |
| 20260506151848 | 56 | 22 | 2.0 | 4.0 | 0.00 | 1.09 | 1.09 | 90 | 1008.0 |
| 20260506151710 | 56 | 45 | 2.0 | 5.0 | 0.00 | 1.09 | 1.09 | 90 | 1008.0 |
| 20260506151513 | 56 | 22 | 2.0 | 5.0 | 0.00 | 1.09 | 1.09 | 89 | 1007.9 |
| 20260506151336 | 56 | 45 | 2.0 | 5.0 | 0.00 | 1.09 | 1.09 | 89 | 1008.0 |
| 20260506151141 | 56 | 22 | 2.0 | 5.0 | 0.00 | 1.09 | 1.09 | 91 | 1008.0 |
| 20260506151017 | 56 | 22 | 3.0 | 5.0 | 0.00 | 1.09 | 1.09 | 91 | 1008.1 |
| 20260506150839 | 56 | 22 | 3.0 | 5.0 | 0.00 | 1.09 | 1.09 | 90 | 1008.1 |
| 20260506150700 | 56 | 22 | 3.0 | 5.0 | 0.00 | 1.09 | 1.09 | 90 | 1008.0 |
| 20260506150510 | 55 | 22 | 4.0 | 6.0 | 0.00 | 1.09 | 1.09 | 90 | 1007.9 |
| 20260506150330 | 55 | 22 | 4.0 | 7.0 | 0.00 | 1.09 | 1.09 | 91 | 1007.9 |
| 20260506150155 | 55 | 22 | 4.0 | 7.0 | 0.00 | 1.09 | 1.09 | 91 | 1007.9 |
| 20260506150015 | 56 | 22 | 4.0 | 7.0 | 0.00 | 1.09 | 1.09 | 91 | 1007.8 |
| 20260506145818 | 56 | 22 | 4.0 | 6.0 | 0.00 | 1.09 | 1.09 | 91 | 1007.9 |
| 20260506145639 | 56 | 45 | 4.0 | 6.0 | 0.00 | 1.09 | 1.09 | 91 | 1007.8 |
| 20260506145554 | 56 | 68 | 4.0 | 6.0 | 0.00 | 1.09 | 1.09 | 91 | 1007.8 |
| 20260506145445 | 56 | 0 | 4.0 | 6.0 | 0.00 | 1.09 | 1.09 | 91 | 1007.9 |
| 20260506145306 | 56 | 22 | 4.0 | 6.0 | 0.00 | 1.09 | 1.09 | 92 | 1007.9 |
| 20260506145120 | 56 | 22 | 4.0 | 7.0 | 0.00 | 1.09 | 1.09 | 92 | 1007.9 |
| 20260506144930 | 56 | 90 | 4.0 | 7.0 | 0.00 | 1.09 | 1.09 | 91 | 1007.9 |
| 20260506144750 | 56 | 22 | 3.0 | 7.0 | 0.00 | 1.09 | 1.09 | 91 | 1007.9 |
| 20260506144558 | 56 | 68 | 3.0 | 5.0 | 0.00 | 1.09 | 1.09 | 91 | 1007.8 |
| 20260506144415 | 56 | 22 | 2.0 | 6.0 | 0.00 | 1.09 | 1.09 | 91 | 1007.8 |
| 20260506144229 | 56 | 68 | 3.0 | 6.0 | 0.00 | 1.09 | 1.09 | 91 | 1007.9 |
| 20260506144043 | 56 | 68 | 2.0 | 6.0 | 0.00 | 1.09 | 1.09 | 91 | 1007.8 |
| 20260506143917 | 56 | 45 | 3.0 | 5.0 | 0.00 | 1.09 | 1.09 | 90 | 1007.8 |
| 20260506143850 | 57 | 45 | 2.0 | 5.0 | 0.00 | 1.09 | 1.09 | 89 | 1007.8 |
| 20260506143650 | 57 | 22 | 2.0 | 5.0 | 0.00 | 1.09 | 1.09 | 90 | 1007.9 |
| 20260506143509 | 57 | 45 | 3.0 | 5.0 | 0.00 | 1.09 | 1.09 | 90 | 1007.8 |
| 20260506143318 | 57 | 45 | 3.0 | 7.0 | 0.00 | 1.09 | 1.09 | 89 | 1007.8 |
| 20260506143135 | 57 | 68 | 3.0 | 7.0 | 0.00 | 1.09 | 1.09 | 90 | 1007.8 |
| 20260506142955 | 57 | 90 | 3.0 | 7.0 | 0.00 | 1.09 | 1.09 | 89 | 1007.8 |
| 20260506142758 | 56 | 68 | 2.0 | 5.0 | 0.00 | 1.09 | 1.09 | 89 | 1007.8 |
| 20260506142618 | 56 | 22 | 2.0 | 5.0 | 0.00 | 1.09 | 1.09 | 89 | 1007.8 |
| 20260506142425 | 56 | 45 | 2.0 | 5.0 | 0.00 | 1.09 | 1.09 | 90 | 1007.9 |
| 20260506142235 | 56 | 22 | 2.0 | 5.0 | 0.00 | 1.09 | 1.09 | 91 | 1007.8 |
| 20260506142204 | 56 | 90 | 1.0 | 2.0 | 0.00 | 1.09 | 1.09 | 92 | 1007.8 |
| 20260506142040 | 56 | 90 | 2.0 | 6.0 | 0.00 | 1.09 | 1.09 | 92 | 1007.8 |
| 20260506141845 | 56 | 90 | 2.0 | 6.0 | 0.00 | 1.09 | 1.09 | 92 | 1007.9 |
| 20260506141705 | 56 | 90 | 2.0 | 6.0 | 0.00 | 1.09 | 1.09 | 92 | 1007.8 |
| 20260506141523 | 56 | 68 | 2.0 | 5.0 | 0.00 | 1.09 | 1.09 | 92 | 1007.9 |
| 20260506141345 | 56 | 45 | 2.0 | 5.0 | 0.00 | 1.09 | 1.09 | 92 | 1007.9 |
| 20260506141155 | 56 | 45 | 2.0 | 5.0 | 0.00 | 1.09 | 1.09 | 92 | 1007.9 |
| 20260506140958 | 56 | 22 | 2.0 | 4.0 | 0.00 | 1.09 | 1.09 | 93 | 1008.0 |
| 20260506140805 | 56 | 22 | 2.0 | 5.0 | 0.00 | 1.09 | 1.09 | 93 | 1007.9 |
| 20260506140616 | 56 | 45 | 2.0 | 5.0 | 0.00 | 1.09 | 1.09 | 93 | 1007.9 |
| 20260506140438 | 56 | 45 | 2.0 | 5.0 | 0.00 | 1.09 | 1.09 | 92 | 1008.0 |
| 20260506140238 | 56 | 22 | 2.0 | 6.0 | 0.00 | 1.09 | 1.09 | 93 | 1008.0 |
| 20260506140038 | 55 | 22 | 2.0 | 6.0 | 0.00 | 1.09 | 1.09 | 94 | 1008.0 |
| 20260506135844 | 55 | 22 | 2.0 | 4.0 | 0.00 | 1.09 | 1.09 | 94 | 1007.9 |
| 20260506135650 | 55 | 22 | 3.0 | 5.0 | 0.00 | 1.09 | 1.09 | 94 | 1007.9 |
| 20260506135501 | 55 | 22 | 3.0 | 5.0 | 0.00 | 1.09 | 1.09 | 94 | 1007.9 |
| 20260506135306 | 55 | 45 | 3.0 | 5.0 | 0.00 | 1.09 | 1.09 | 94 | 1007.8 |
| 20260506135125 | 55 | 68 | 2.0 | 5.0 | 0.00 | 1.09 | 1.09 | 95 | 1007.9 |
| 20260506134931 | 55 | 45 | 2.0 | 5.0 | 0.00 | 1.09 | 1.09 | 95 | 1007.8 |
| 20260506134757 | 54 | 68 | 2.0 | 5.0 | 0.00 | 1.09 | 1.09 | 95 | 1007.8 |
| 20260506134733 | 54 | 338 | 2.0 | 5.0 | 0.00 | 1.09 | 1.09 | 95 | 1007.8 |
| 20260506134535 | 54 | 22 | 2.0 | 4.0 | 0.00 | 1.09 | 1.09 | 96 | 1007.9 |
| 20260506134340 | 54 | 22 | 2.0 | 4.0 | 0.00 | 1.09 | 1.09 | 96 | 1007.9 |
| 20260506134150 | 54 | 45 | 3.0 | 5.0 | 0.00 | 1.09 | 1.09 | 96 | 1007.8 |
| 20260506133955 | 54 | 45 | 3.0 | 5.0 | 0.00 | 1.09 | 1.09 | 96 | 1007.8 |
| 20260506133805 | 54 | 45 | 3.0 | 5.0 | 0.00 | 1.09 | 1.09 | 96 | 1007.8 |
| 20260506133625 | 54 | 45 | 4.0 | 6.0 | 0.00 | 1.09 | 1.09 | 96 | 1007.7 |
| 20260506133426 | 54 | 22 | 4.0 | 6.0 | 0.00 | 1.09 | 1.09 | 96 | 1007.8 |
| 20260506133251 | 54 | 22 | 4.0 | 6.0 | 0.00 | 1.09 | 1.09 | 96 | 1007.7 |
| 20260506133213 | 54 | 22 | 4.0 | 6.0 | 0.00 | 1.09 | 1.09 | 96 | 1007.7 |
| 20260506133105 | 54 | 45 | 4.0 | 5.0 | 0.00 | 1.09 | 1.09 | 96 | 1007.8 |
| 20260506132909 | 54 | 45 | 4.0 | 7.0 | 0.00 | 1.09 | 1.09 | 96 | 1007.7 |
| 20260506132732 | 54 | 22 | 3.0 | 7.0 | 0.00 | 1.09 | 1.09 | 96 | 1007.7 |
| 20260506132545 | 54 | 45 | 3.0 | 7.0 | 0.00 | 1.09 | 1.09 | 96 | 1007.7 |
| 20260506132400 | 54 | 45 | 2.0 | 6.0 | 0.00 | 1.09 | 1.09 | 97 | 1007.8 |
| 20260506132218 | 54 | 338 | 2.0 | 6.0 | 0.00 | 1.09 | 1.09 | 97 | 1007.7 |
| 20260506132030 | 54 | 22 | 2.0 | 5.0 | 0.00 | 1.09 | 1.09 | 97 | 1007.8 |
| 20260506131835 | 54 | 45 | 1.0 | 5.0 | 0.00 | 1.09 | 1.09 | 97 | 1007.7 |
| 20260506131635 | 54 | 45 | 1.0 | 5.0 | 0.00 | 1.09 | 1.09 | 97 | 1007.8 |
| 20260506131536 | 54 | 45 | 2.0 | 5.0 | 0.00 | 1.09 | 1.09 | 97 | 1007.7 |
| 20260506131440 | 54 | 45 | 2.0 | 5.0 | 0.00 | 1.09 | 1.09 | 97 | 1007.7 |
| 20260506131250 | 54 | 45 | 1.0 | 5.0 | 0.00 | 1.09 | 1.09 | 97 | 1007.7 |
| 20260506131100 | 54 | 45 | 1.0 | 5.0 | 0.00 | 1.09 | 1.09 | 97 | 1007.8 |
| 20260506130910 | 54 | 68 | 2.0 | 5.0 | 0.00 | 1.09 | 1.09 | 97 | 1007.7 |
| 20260506130715 | 54 | 68 | 1.0 | 5.0 | 0.00 | 1.09 | 1.09 | 97 | 1007.7 |
| 20260506130515 | 54 | 45 | 1.0 | 5.0 | 0.00 | 1.09 | 1.09 | 97 | 1007.8 |
| 20260506130318 | 54 | 68 | 0.0 | 5.0 | 0.00 | 1.09 | 1.09 | 97 | 1007.8 |
| 20260506130130 | 54 | 68 | 0.0 | 5.0 | 0.00 | 1.09 | 1.09 | 97 | 1007.8 |
| 20260506125950 | 54 | 68 | 1.0 | 5.0 | 0.00 | 1.09 | 1.09 | 97 | 1007.8 |
| 20260506125803 | 54 | 45 | 0.0 | 2.0 | 0.00 | 1.09 | 1.09 | 97 | 1007.8 |
| 20260506125701 | 54 | 22 | 1.0 | 2.0 | 0.00 | 1.09 | 1.09 | 97 | 1007.8 |
| 20260506125627 | 54 | 22 | 1.0 | 2.0 | 0.00 | 1.09 | 1.09 | 97 | 1007.8 |
| 20260506125435 | 54 | 22 | 1.0 | 2.0 | 0.00 | 1.09 | 1.09 | 97 | 1007.8 |
| 20260506125300 | 54 | 22 | 1.0 | 4.0 | 0.00 | 1.09 | 1.09 | 97 | 1007.9 |
| 20260506125118 | 54 | 22 | 1.0 | 4.0 | 0.00 | 1.09 | 1.09 | 97 | 1007.8 |
| 20260506124934 | 54 | 22 | 1.0 | 4.0 | 0.00 | 1.09 | 1.09 | 97 | 1007.8 |
| 20260506124745 | 54 | 22 | 1.0 | 4.0 | 0.00 | 1.09 | 1.09 | 98 | 1007.8 |
| 20260506124600 | 54 | 22 | 2.0 | 4.0 | 0.00 | 1.09 | 1.09 | 97 | 1007.9 |
| 20260506124412 | 54 | 90 | 2.0 | 5.0 | 0.00 | 1.09 | 1.09 | 98 | 1007.8 |
| 20260506124215 | 54 | 90 | 2.0 | 5.0 | 0.00 | 1.09 | 1.09 | 98 | 1007.9 |
| 20260506124122 | 54 | 68 | 2.0 | 5.0 | 0.00 | 1.09 | 1.09 | 98 | 1007.9 |
| 20260506124015 | 54 | 68 | 2.0 | 5.0 | 0.00 | 1.09 | 1.09 | 97 | 1007.8 |
| 20260506123830 | 54 | 45 | 2.0 | 5.0 | 0.00 | 1.09 | 1.09 | 98 | 1007.8 |
| 20260506123635 | 54 | 338 | 2.0 | 5.0 | 0.00 | 1.09 | 1.09 | 98 | 1007.7 |
| 20260506123450 | 53 | 45 | 2.0 | 4.0 | 0.00 | 1.09 | 1.09 | 98 | 1007.8 |
| 20260506123255 | 54 | 45 | 1.0 | 5.0 | 0.00 | 1.09 | 1.09 | 98 | 1007.7 |
| 20260506123115 | 54 | 45 | 2.0 | 5.0 | 0.00 | 1.09 | 1.09 | 98 | 1007.7 |
| 20260506122935 | 54 | 68 | 2.0 | 5.0 | 0.00 | 1.09 | 1.09 | 97 | 1007.7 |
| 20260506122750 | 54 | 22 | 1.0 | 5.0 | 0.02 | 1.09 | 1.09 | 98 | 1007.7 |
| 20260506122554 | 54 | 45 | 1.0 | 6.0 | 0.02 | 1.09 | 1.09 | 98 | 1007.7 |
| 20260506122429 | 54 | 68 | 1.0 | 6.0 | 0.02 | 1.09 | 1.09 | 97 | 1007.7 |
| 20260506122245 | 54 | 45 | 1.0 | 6.0 | 0.02 | 1.09 | 1.09 | 97 | 1007.6 |
| 20260506122050 | 54 | 22 | 1.0 | 3.0 | 0.02 | 1.09 | 1.09 | 98 | 1007.7 |
| 20260506121915 | 54 | 22 | 1.0 | 3.0 | 0.02 | 1.09 | 1.09 | 98 | 1007.7 |
| 20260506121718 | 54 | 22 | 1.0 | 3.0 | 0.02 | 1.09 | 1.09 | 98 | 1007.7 |
| 20260506121537 | 53 | 22 | 2.0 | 4.0 | 0.02 | 1.09 | 1.09 | 98 | 1007.6 |
| 20260506121345 | 53 | 22 | 2.0 | 4.0 | 0.02 | 1.09 | 1.09 | 98 | 1007.7 |
| 20260506121145 | 53 | 68 | 2.0 | 5.0 | 0.02 | 1.09 | 1.09 | 98 | 1007.7 |
| 20260506120946 | 53 | 22 | 2.0 | 8.0 | 0.02 | 1.09 | 1.09 | 98 | 1007.7 |
| 20260506120755 | 53 | 0 | 2.0 | 8.0 | 0.02 | 1.09 | 1.09 | 98 | 1007.7 |
| 20260506120558 | 53 | 22 | 2.0 | 8.0 | 0.02 | 1.09 | 1.09 | 97 | 1007.7 |
| 20260506120358 | 53 | 22 | 1.0 | 4.0 | 0.02 | 1.09 | 1.09 | 98 | 1007.7 |
| 20260506120158 | 53 | 22 | 1.0 | 2.0 | 0.02 | 1.09 | 1.09 | 98 | 1007.7 |
| 20260506120020 | 53 | 22 | 2.0 | 2.0 | 0.02 | 1.09 | 1.09 | 98 | 1007.6 |
| 20260506115837 | 53 | 22 | 2.0 | 0.0 | 0.02 | 1.09 | 1.09 | 98 | 1007.6 |
| 20260506115645 | 53 | 22 | 2.0 | 7.0 | 0.02 | 1.09 | 1.09 | 98 | 1007.6 |
| 20260506115449 | 53 | 22 | 2.0 | 7.0 | 0.02 | 1.09 | 1.09 | 98 | 1007.5 |
| 20260506115307 | 53 | 22 | 2.0 | 7.0 | 0.02 | 1.09 | 1.09 | 98 | 1007.6 |
| 20260506115125 | 53 | 22 | 2.0 | 5.0 | 0.02 | 1.09 | 1.09 | 98 | 1007.5 |
| 20260506114930 | 53 | 45 | 2.0 | 5.0 | 0.02 | 1.09 | 1.09 | 98 | 1007.5 |
| 20260506114730 | 53 | 45 | 2.0 | 5.0 | 0.02 | 1.09 | 1.09 | 98 | 1007.5 |
| 20260506114540 | 53 | 45 | 3.0 | 6.0 | 0.02 | 1.09 | 1.09 | 98 | 1007.5 |
| 20260506114350 | 53 | 22 | 3.0 | 6.0 | 0.02 | 1.09 | 1.09 | 98 | 1007.4 |
| 20260506114155 | 53 | 45 | 3.0 | 6.0 | 0.02 | 1.09 | 1.09 | 98 | 1007.4 |
| 20260506113958 | 53 | 45 | 2.0 | 8.0 | 0.02 | 1.09 | 1.09 | 98 | 1007.4 |
| 20260506113811 | 53 | 45 | 2.0 | 8.0 | 0.02 | 1.09 | 1.09 | 98 | 1007.3 |
| 20260506113621 | 53 | 0 | 2.0 | 8.0 | 0.02 | 1.09 | 1.09 | 98 | 1007.3 |
| 20260506113424 | 54 | 22 | 2.0 | 5.0 | 0.02 | 1.09 | 1.09 | 98 | 1007.3 |
| 20260506113230 | 54 | 0 | 1.0 | 5.0 | 0.02 | 1.09 | 1.09 | 98 | 1007.3 |
| 20260506113038 | 54 | 338 | 1.0 | 3.0 | 0.02 | 1.09 | 1.09 | 98 | 1007.3 |
| 20260506112840 | 54 | 292 | 1.0 | 3.0 | 0.02 | 1.09 | 1.09 | 98 | 1007.3 |
| 20260506112653 | 54 | 315 | 1.0 | 3.0 | 0.02 | 1.09 | 1.09 | 98 | 1007.3 |
| 20260506112458 | 54 | 22 | 1.0 | 3.0 | 0.02 | 1.09 | 1.09 | 98 | 1007.3 |
| 20260506112258 | 54 | 22 | 0.0 | 2.0 | 0.00 | 1.07 | 1.07 | 98 | 1007.3 |
| 20260506112105 | 54 | 0 | 0.0 | 2.0 | 0.00 | 1.07 | 1.07 | 98 | 1007.2 |
| 20260506111920 | 54 | 0 | 0.0 | 4.0 | 0.00 | 1.07 | 1.07 | 98 | 1007.2 |
| 20260506111735 | 54 | 0 | 0.0 | 4.0 | 0.00 | 1.07 | 1.07 | 98 | 1007.3 |
| 20260506111555 | 54 | 0 | 0.0 | 4.0 | 0.00 | 1.07 | 1.07 | 98 | 1007.2 |
| 20260506111410 | 54 | 315 | 0.0 | 1.0 | 0.00 | 1.07 | 1.07 | 98 | 1007.2 |
| 20260506111236 | 54 | 315 | 0.0 | 1.0 | 0.00 | 1.07 | 1.07 | 98 | 1007.2 |
| 20260506111210 | 54 | 315 | 0.0 | 1.0 | 0.00 | 1.07 | 1.07 | 98 | 1007.2 |
| 20260506111030 | 54 | 22 | 1.0 | 2.0 | 0.00 | 1.07 | 1.07 | 98 | 1007.2 |
| 20260506110835 | 54 | 22 | 1.0 | 2.0 | 0.00 | 1.07 | 1.07 | 98 | 1007.2 |
| 20260506110650 | 54 | 292 | 1.0 | 2.0 | 0.00 | 1.07 | 1.07 | 98 | 1007.2 |
| 20260506110505 | 54 | 338 | 1.0 | 3.0 | 0.00 | 1.07 | 1.07 | 98 | 1007.3 |
| 20260506110325 | 54 | 45 | 1.0 | 3.0 | 0.00 | 1.07 | 1.07 | 98 | 1007.2 |
| 20260506110135 | 54 | 22 | 1.0 | 3.0 | 0.00 | 1.07 | 1.07 | 98 | 1007.2 |
| 20260506105958 | 54 | 0 | 1.0 | 2.0 | 0.00 | 1.07 | 1.07 | 98 | 1007.0 |
| 20260506105815 | 54 | 0 | 1.0 | 5.0 | 0.00 | 1.07 | 1.07 | 98 | 1007.1 |
| 20260506105615 | 54 | 0 | 2.0 | 5.0 | 0.00 | 1.07 | 1.07 | 98 | 1007.1 |
| 20260506105545 | 54 | 0 | 2.0 | 5.0 | 0.00 | 1.07 | 1.07 | 98 | 1007.1 |
| 20260506105415 | 54 | 0 | 1.0 | 5.0 | 0.00 | 1.07 | 1.07 | 98 | 1007.0 |
| 20260506105230 | 53 | 338 | 1.0 | 4.0 | 0.00 | 1.07 | 1.07 | 98 | 1007.1 |
| 20260506105050 | 53 | 338 | 1.0 | 2.0 | 0.00 | 1.07 | 1.07 | 98 | 1007.0 |
| 20260506104850 | 53 | 292 | 2.0 | 2.0 | 0.00 | 1.07 | 1.07 | 98 | 1007.1 |
| 20260506104710 | 53 | 270 | 1.0 | 2.0 | 0.00 | 1.07 | 1.07 | 98 | 1007.0 |
| 20260506104514 | 53 | 45 | 2.0 | 4.0 | 0.00 | 1.07 | 1.07 | 98 | 1007.1 |
| 20260506104318 | 53 | 22 | 2.0 | 5.0 | 0.00 | 1.07 | 1.07 | 98 | 1007.0 |
| 20260506104120 | 53 | 22 | 2.0 | 5.0 | 0.00 | 1.07 | 1.07 | 98 | 1007.0 |
| 20260506104021 | 53 | 22 | 2.0 | 5.0 | 0.02 | 1.07 | 1.07 | 98 | 1007.0 |
| 20260506103943 | 53 | 22 | 2.0 | 5.0 | 0.02 | 1.07 | 1.07 | 98 | 1007.0 |
| 20260506103745 | 53 | 45 | 2.0 | 5.0 | 0.02 | 1.07 | 1.07 | 98 | 1007.0 |
| 20260506103550 | 53 | 292 | 1.0 | 4.0 | 0.02 | 1.07 | 1.07 | 98 | 1006.9 |
| 20260506103358 | 53 | 292 | 2.0 | 4.0 | 0.02 | 1.07 | 1.07 | 98 | 1006.9 |
| 20260506103159 | 53 | 22 | 2.0 | 4.0 | 0.02 | 1.07 | 1.07 | 98 | 1007.0 |
| 20260506103010 | 53 | 45 | 2.0 | 6.0 | 0.02 | 1.07 | 1.07 | 98 | 1006.9 |
| 20260506102825 | 53 | 0 | 2.0 | 6.0 | 0.02 | 1.07 | 1.07 | 98 | 1006.9 |
| 20260506102638 | 53 | 0 | 2.0 | 6.0 | 0.02 | 1.07 | 1.07 | 98 | 1006.9 |
| 20260506102449 | 53 | 45 | 2.0 | 5.0 | 0.02 | 1.07 | 1.07 | 98 | 1006.8 |
| 20260506102310 | 53 | 45 | 2.0 | 5.0 | 0.02 | 1.07 | 1.07 | 98 | 1006.8 |
| 20260506102108 | 53 | 22 | 2.0 | 5.0 | 0.02 | 1.07 | 1.07 | 98 | 1006.8 |
| 20260506101918 | 53 | 338 | 2.0 | 3.0 | 0.02 | 1.07 | 1.07 | 98 | 1006.8 |
| 20260506101735 | 53 | 338 | 2.0 | 8.0 | 0.02 | 1.07 | 1.07 | 98 | 1006.9 |
| 20260506101554 | 53 | 45 | 2.0 | 8.0 | 0.02 | 1.07 | 1.07 | 98 | 1006.8 |
| 20260506101358 | 53 | 22 | 2.0 | 8.0 | 0.02 | 1.07 | 1.07 | 98 | 1006.8 |
| 20260506101205 | 53 | 45 | 2.0 | 5.0 | 0.02 | 1.07 | 1.07 | 99 | 1006.7 |
| 20260506101021 | 53 | 45 | 2.0 | 5.0 | 0.02 | 1.07 | 1.07 | 99 | 1006.8 |
| 20260506100932 | 53 | 45 | 2.0 | 5.0 | 0.02 | 1.07 | 1.07 | 99 | 1006.7 |
| 20260506100841 | 53 | 45 | 2.0 | 5.0 | 0.02 | 1.07 | 1.07 | 98 | 1006.7 |
| 20260506100645 | 53 | 270 | 1.0 | 2.0 | 0.02 | 1.07 | 1.07 | 99 | 1006.7 |
| 20260506100457 | 53 | 0 | 1.0 | 5.0 | 0.02 | 1.07 | 1.07 | 98 | 1006.7 |
| 20260506100315 | 53 | 45 | 2.0 | 5.0 | 0.02 | 1.07 | 1.07 | 99 | 1006.6 |
| 20260506100125 | 53 | 45 | 2.0 | 5.0 | 0.02 | 1.07 | 1.07 | 98 | 1006.7 |
| 20260506095945 | 53 | 22 | 2.0 | 6.0 | 0.02 | 1.07 | 1.07 | 99 | 1006.7 |
| 20260506095800 | 53 | 22 | 3.0 | 6.0 | 0.03 | 1.07 | 1.07 | 98 | 1006.6 |
| 20260506095605 | 53 | 22 | 4.0 | 6.0 | 0.03 | 1.07 | 1.07 | 98 | 1006.6 |
| 20260506095415 | 53 | 22 | 4.0 | 7.0 | 0.03 | 1.07 | 1.07 | 98 | 1006.5 |
| 20260506095228 | 53 | 45 | 3.0 | 7.0 | 0.03 | 1.07 | 1.07 | 98 | 1006.6 |
| 20260506095105 | 53 | 68 | 3.0 | 7.0 | 0.03 | 1.07 | 1.07 | 98 | 1006.5 |
| 20260506095035 | 53 | 22 | 3.0 | 7.0 | 0.03 | 1.07 | 1.07 | 98 | 1006.5 |
| 20260506094856 | 53 | 22 | 3.0 | 7.0 | 0.03 | 1.07 | 1.07 | 98 | 1006.5 |
| 20260506094700 | 53 | 338 | 3.0 | 5.0 | 0.05 | 1.07 | 1.07 | 98 | 1006.5 |
| 20260506094505 | 53 | 22 | 2.0 | 7.0 | 0.05 | 1.07 | 1.07 | 99 | 1006.5 |
| 20260506094325 | 53 | 0 | 3.0 | 7.0 | 0.05 | 1.07 | 1.07 | 99 | 1006.5 |
| 20260506094129 | 53 | 22 | 3.0 | 7.0 | 0.05 | 1.07 | 1.07 | 98 | 1006.5 |
| 20260506093935 | 53 | 22 | 3.0 | 6.0 | 0.05 | 1.07 | 1.07 | 99 | 1006.5 |
| 20260506093745 | 52 | 22 | 3.0 | 5.0 | 0.05 | 1.07 | 1.07 | 99 | 1006.4 |
| 20260506093600 | 52 | 22 | 2.0 | 6.0 | 0.05 | 1.06 | 1.06 | 99 | 1006.4 |
| 20260506093410 | 52 | 22 | 3.0 | 6.0 | 0.05 | 1.06 | 1.06 | 98 | 1006.4 |
| 20260506093220 | 52 | 248 | 2.0 | 6.0 | 0.05 | 1.06 | 1.06 | 98 | 1006.4 |
| 20260506093025 | 52 | 22 | 3.0 | 4.0 | 0.05 | 1.06 | 1.06 | 99 | 1006.4 |
| 20260506092836 | 52 | 45 | 3.0 | 5.0 | 0.05 | 1.06 | 1.06 | 99 | 1006.4 |
| 20260506092658 | 52 | 45 | 2.0 | 6.0 | 0.06 | 1.06 | 1.06 | 99 | 1006.4 |
| 20260506092506 | 52 | 22 | 3.0 | 9.0 | 0.06 | 1.06 | 1.06 | 99 | 1006.4 |
| 20260506092328 | 52 | 45 | 3.0 | 9.0 | 0.06 | 1.06 | 1.06 | 99 | 1006.4 |
| 20260506092130 | 52 | 45 | 2.0 | 9.0 | 0.08 | 1.06 | 1.06 | 99 | 1006.4 |
| 20260506091938 | 52 | 22 | 2.0 | 5.0 | 0.08 | 1.06 | 1.06 | 99 | 1006.3 |
| 20260506091740 | 52 | 45 | 3.0 | 5.0 | 0.08 | 1.06 | 1.06 | 99 | 1006.3 |
| 20260506091550 | 52 | 45 | 4.0 | 8.0 | 0.08 | 1.06 | 1.06 | 99 | 1006.3 |
| 20260506091457 | 52 | 45 | 4.0 | 8.0 | 0.08 | 1.06 | 1.06 | 99 | 1006.2 |
| 20260506091410 | 53 | 22 | 4.0 | 9.0 | 0.08 | 1.06 | 1.06 | 99 | 1006.3 |
| 20260506091215 | 53 | 22 | 4.0 | 9.0 | 0.08 | 1.06 | 1.06 | 99 | 1006.3 |
| 20260506091024 | 53 | 22 | 3.0 | 9.0 | 0.09 | 1.06 | 1.06 | 99 | 1006.3 |
| 20260506090842 | 53 | 22 | 3.0 | 9.0 | 0.09 | 1.06 | 1.06 | 99 | 1006.3 |
| 20260506090700 | 53 | 292 | 2.0 | 5.0 | 0.09 | 1.06 | 1.06 | 99 | 1006.2 |
| 20260506090515 | 53 | 22 | 2.0 | 5.0 | 0.11 | 1.06 | 1.06 | 99 | 1006.2 |
| 20260506090335 | 52 | 22 | 2.0 | 2.0 | 0.11 | 1.06 | 1.06 | 99 | 1006.2 |
| 20260506090142 | 52 | 45 | 2.0 | 4.0 | 0.11 | 1.06 | 1.06 | 99 | 1006.2 |
| 20260506085945 | 52 | 22 | 2.0 | 6.0 | 0.13 | 1.06 | 1.06 | 99 | 1006.2 |
| 20260506085805 | 52 | 22 | 2.0 | 6.0 | 0.13 | 1.06 | 1.06 | 99 | 1006.2 |
| 20260506085615 | 52 | 22 | 3.0 | 7.0 | 0.13 | 1.06 | 1.06 | 99 | 1006.2 |
| 20260506085602 | 52 | 315 | 3.0 | 7.0 | 0.13 | 1.06 | 1.06 | 99 | 1006.2 |
| 20260506085415 | 52 | 45 | 4.0 | 7.0 | 0.13 | 1.04 | 1.04 | 99 | 1006.1 |
| 20260506085215 | 52 | 22 | 4.0 | 8.0 | 0.13 | 1.04 | 1.04 | 99 | 1006.2 |
| 20260506085025 | 52 | 292 | 3.0 | 8.0 | 0.13 | 1.04 | 1.04 | 99 | 1006.2 |
| 20260506084850 | 52 | 45 | 4.0 | 8.0 | 0.14 | 1.04 | 1.04 | 99 | 1006.1 |
| 20260506084653 | 52 | 22 | 3.0 | 7.0 | 0.14 | 1.04 | 1.04 | 99 | 1006.1 |
| 20260506084454 | 52 | 22 | 2.0 | 8.0 | 0.14 | 1.04 | 1.04 | 99 | 1006.1 |
| 20260506084310 | 52 | 22 | 2.0 | 9.0 | 0.13 | 1.02 | 1.02 | 99 | 1006.1 |
| 20260506084110 | 52 | 22 | 2.0 | 9.0 | 0.13 | 1.02 | 1.02 | 99 | 1006.1 |
| 20260506083920 | 52 | 22 | 2.0 | 9.0 | 0.13 | 1.02 | 1.02 | 99 | 1006.2 |
| 20260506083735 | 52 | 45 | 2.0 | 5.0 | 0.14 | 1.02 | 1.02 | 99 | 1006.1 |
| 20260506083715 | 52 | 22 | 2.0 | 5.0 | 0.14 | 1.02 | 1.02 | 99 | 1006.0 |
| 20260506083555 | 52 | 22 | 2.0 | 5.0 | 0.14 | 1.02 | 1.02 | 99 | 1006.0 |
| 20260506083418 | 52 | 22 | 2.0 | 5.0 | 0.14 | 1.02 | 1.02 | 99 | 1006.1 |
| 20260506083240 | 52 | 270 | 2.0 | 5.0 | 0.14 | 1.01 | 1.01 | 99 | 1006.0 |
| 20260506083058 | 52 | 0 | 2.0 | 5.0 | 0.14 | 1.01 | 1.01 | 99 | 1006.1 |
| 20260506082904 | 52 | 22 | 2.0 | 6.0 | 0.14 | 1.01 | 1.01 | 99 | 1006.1 |
| 20260506082715 | 52 | 22 | 1.0 | 5.0 | 0.17 | 1.01 | 1.01 | 99 | 1006.0 |
| 20260506082519 | 52 | 22 | 1.0 | 5.0 | 0.17 | 1.01 | 1.01 | 99 | 1006.0 |
| 20260506082325 | 52 | 22 | 1.0 | 0.0 | 0.17 | 1.01 | 1.01 | 99 | 1006.0 |
| 20260506082140 | 51 | 22 | 1.0 | 4.0 | 0.17 | 0.99 | 0.99 | 99 | 1006.0 |
| 20260506082031 | 51 | 22 | 1.0 | 4.0 | 0.17 | 0.99 | 0.99 | 99 | 1006.0 |
| 20260506081950 | 51 | 22 | 2.0 | 4.0 | 0.17 | 0.99 | 0.99 | 99 | 1005.9 |
| 20260506081755 | 51 | 22 | 2.0 | 5.0 | 0.17 | 0.99 | 0.99 | 99 | 1006.0 |
| 20260506081615 | 51 | 22 | 2.0 | 5.0 | 0.19 | 0.98 | 0.98 | 99 | 1005.9 |
| 20260506081430 | 51 | 22 | 2.0 | 5.0 | 0.19 | 0.98 | 0.98 | 99 | 1006.0 |
| 20260506081235 | 51 | 68 | 2.0 | 5.0 | 0.19 | 0.98 | 0.98 | 99 | 1006.0 |
| 20260506081100 | 51 | 68 | 2.0 | 5.0 | 0.24 | 0.98 | 0.98 | 99 | 1006.0 |
| 20260506080910 | 51 | 315 | 2.0 | 4.0 | 0.24 | 0.98 | 0.98 | 99 | 1006.0 |
| 20260506080715 | 51 | 225 | 2.0 | 5.0 | 0.24 | 0.98 | 0.98 | 99 | 1006.0 |
| 20260506080535 | 51 | 45 | 3.0 | 6.0 | 0.24 | 0.96 | 0.96 | 99 | 1005.9 |
| 20260506080350 | 51 | 45 | 3.0 | 6.0 | 0.24 | 0.96 | 0.96 | 99 | 1006.0 |
| 20260506080315 | 51 | 68 | 3.0 | 6.0 | 0.24 | 0.96 | 0.96 | 99 | 1005.9 |
| 20260506080150 | 51 | 22 | 3.0 | 7.0 | 0.24 | 0.96 | 0.96 | 99 | 1005.9 |
| 20260506073427 | 51 | 22 | 3.0 | 8.0 | 0.31 | 0.88 | 0.88 | 99 | 1005.7 |
| 20260506073250 | 51 | 0 | 3.0 | 8.0 | 0.31 | 0.88 | 0.88 | 99 | 1005.7 |
| 20260506073110 | 51 | 22 | 2.0 | 5.0 | 0.31 | 0.88 | 0.88 | 99 | 1005.8 |
| 20260506072920 | 51 | 45 | 2.0 | 5.0 | 0.31 | 0.87 | 0.87 | 99 | 1005.7 |
| 20260506072725 | 51 | 90 | 2.0 | 5.0 | 0.31 | 0.87 | 0.87 | 99 | 1005.8 |
| 20260506072707 | 51 | 90 | 2.0 | 5.0 | 0.31 | 0.87 | 0.87 | 99 | 1005.8 |
| 20260506072545 | 51 | 22 | 2.0 | 5.0 | 0.31 | 0.87 | 0.87 | 99 | 1005.8 |
| 20260506072400 | 51 | 22 | 2.0 | 5.0 | 0.33 | 0.83 | 0.83 | 99 | 1005.8 |
| 20260506072213 | 51 | 292 | 2.0 | 5.0 | 0.33 | 0.83 | 0.83 | 99 | 1005.7 |
| 20260506072015 | 51 | 338 | 1.0 | 5.0 | 0.33 | 0.83 | 0.83 | 99 | 1005.8 |
| 20260506071820 | 51 | 22 | 1.0 | 5.0 | 0.33 | 0.82 | 0.82 | 99 | 1005.8 |
| 20260506071630 | 51 | 22 | 1.0 | 5.0 | 0.33 | 0.82 | 0.82 | 99 | 1005.8 |
| 20260506071428 | 51 | 22 | 1.0 | 4.0 | 0.33 | 0.82 | 0.82 | 99 | 1005.8 |
| 20260506071238 | 51 | 22 | 1.0 | 4.0 | 0.30 | 0.79 | 0.79 | 99 | 1005.8 |
| 20260506071055 | 51 | 22 | 0.0 | 2.0 | 0.30 | 0.79 | 0.79 | 99 | 1005.7 |
| 20260506070859 | 51 | 22 | 1.0 | 2.0 | 0.30 | 0.79 | 0.79 | 99 | 1005.7 |
| 20260506070707 | 51 | 22 | 1.0 | 2.0 | 0.27 | 0.74 | 0.74 | 99 | 1005.7 |
| 20260506070510 | 51 | 22 | 1.0 | 5.0 | 0.27 | 0.74 | 0.74 | 99 | 1005.7 |
| 20260506070315 | 51 | 0 | 1.0 | 5.0 | 0.25 | 0.72 | 0.72 | 99 | 1005.7 |
| 20260506070125 | 51 | 45 | 1.0 | 5.0 | 0.25 | 0.72 | 0.72 | 99 | 1005.7 |
| 20260506062348 | 51 | 22 | 2.0 | 7.0 | 0.09 | 0.55 | 0.55 | 99 | 1005.4 |
| 20260506062200 | 51 | 22 | 1.0 | 6.0 | 0.09 | 0.55 | 0.55 | 99 | 1005.4 |
| 20260506062015 | 51 | 22 | 1.0 | 3.0 | 0.05 | 0.50 | 0.50 | 99 | 1005.4 |
| 20260506061922 | 51 | 22 | 1.0 | 3.0 | 0.05 | 0.50 | 0.50 | 99 | 1005.5 |
| 20260506061835 | 51 | 22 | 1.0 | 3.0 | 0.05 | 0.50 | 0.50 | 99 | 1005.5 |
| 20260506061658 | 51 | 68 | 1.0 | 2.0 | 0.05 | 0.50 | 0.50 | 99 | 1005.4 |
| 20260506061513 | 51 | 45 | 1.0 | 5.0 | 0.03 | 0.49 | 0.49 | 99 | 1005.5 |
| 20260506061335 | 51 | 45 | 1.0 | 5.0 | 0.03 | 0.49 | 0.49 | 99 | 1005.4 |
| 20260506061155 | 51 | 45 | 1.0 | 5.0 | 0.03 | 0.49 | 0.49 | 99 | 1005.4 |
| 20260506061000 | 51 | 22 | 1.0 | 3.0 | 0.03 | 0.49 | 0.49 | 99 | 1005.4 |
| 20260506060825 | 51 | 22 | 1.0 | 3.0 | 0.03 | 0.49 | 0.49 | 99 | 1005.4 |
| 20260506060625 | 51 | 45 | 1.0 | 3.0 | 0.03 | 0.49 | 0.49 | 99 | 1005.4 |
| 20260506060445 | 51 | 45 | 1.0 | 2.0 | 0.03 | 0.47 | 0.47 | 99 | 1005.4 |
| 20260506060300 | 51 | 45 | 1.0 | 6.0 | 0.03 | 0.47 | 0.47 | 99 | 1005.3 |
| 20260506060118 | 51 | 22 | 2.0 | 6.0 | 0.03 | 0.47 | 0.47 | 99 | 1005.2 |
| 20260506051355 | 51 | 45 | 3.0 | 8.0 | 0.05 | 0.46 | 0.46 | 99 | 1005.5 |
| 20260506051208 | 51 | 0 | 2.0 | 8.0 | 0.05 | 0.46 | 0.46 | 99 | 1005.5 |
| 20260506051015 | 51 | 45 | 2.0 | 8.0 | 0.05 | 0.46 | 0.46 | 99 | 1005.6 |
| 20260506050815 | 51 | 45 | 2.0 | 4.0 | 0.05 | 0.46 | 0.46 | 99 | 1005.6 |
| 20260506050618 | 51 | 45 | 2.0 | 5.0 | 0.06 | 0.46 | 0.46 | 99 | 1005.5 |
| 20260506050427 | 51 | 0 | 2.0 | 4.0 | 0.06 | 0.46 | 0.46 | 99 | 1005.6 |
| 20260506050412 | 51 | 0 | 2.0 | 4.0 | 0.06 | 0.46 | 0.46 | 99 | 1005.6 |
| 20260506050235 | 51 | 45 | 2.0 | 4.0 | 0.06 | 0.46 | 0.46 | 99 | 1005.6 |
| 20260506045005 | 51 | 45 | 3.0 | 6.0 | 0.06 | 0.44 | 0.44 | 99 | 1005.6 |
| 20260506044815 | 51 | 22 | 4.0 | 6.0 | 0.06 | 0.44 | 0.44 | 99 | 1005.6 |
| 20260506044625 | 51 | 22 | 4.0 | 7.0 | 0.06 | 0.44 | 0.44 | 99 | 1005.7 |
| 20260506044435 | 51 | 45 | 4.0 | 8.0 | 0.06 | 0.44 | 0.44 | 99 | 1005.6 |